Time,TemperatureF,DewpointF,PressureIn,WindDirection,WindDirectionDegrees,WindSpeedMPH,WindSpeedGustMPH,Humidity,HourlyPrecipIn,Conditions,Clouds,dailyrainin,SoftwareType,DateUTC
2013-02-23 00:00:00,33.8,24.0,29.73,SSW,202,4.9,5.8,67,0.00,CLR,,0.00,WeatherDisplay:10.37,2013-02-23 08:00:00,
2013-02-23 00:02:00,33.8,24.0,29.73,SSW,202,4.9,5.9,67,0.00,CLR,,0.00,WeatherDisplay:10.37,2013-02-23 08:02:00,
2013-02-23 00:03:00,33.8,24.0,29.73,SSW,202,4.9,5.9,67,0.00,CLR,,0.00,WeatherDisplay:10.37,2013-02-23 08:03:00,
2013-02-23 00:05:00,33.8,24.0,29.73,SSW,202,4.9,5.8,67,0.00,CLR,,0.00,WeatherDisplay:10.37,2013-02-23 08:05:00,
2013-02-23 00:07:00,33.8,24.0,29.73,SSW,202,4.9,5.8,67,0.00,CLR,,0.00,WeatherDisplay:10.37,2013-02-23 08:07:00,
2013-02-23 00:08:00,33.8,24.0,29.73,SSW,202,4.9,5.8,67,0.00,CLR,,0.00,WeatherDisplay:10.37,2013-02-23 08:08:00,
2013-02-23 00:10:00,33.8,24.0,29.73,SSW,202,4.9,5.8,67,0.00,CLR,,0.00,WeatherDisplay:10.37,2013-02-23 08:10:00,
2013-02-23 00:12:00,33.8,24.0,29.73,SSW,202,4.9,5.9,67,0.00,CLR,,0.00,WeatherDisplay:10.37,2013-02-23 08:12:00,
2013-02-23 00:13:00,33.8,24.0,29.73,SSW,202,4.9,5.9,67,0.00,CLR,,0.00,WeatherDisplay:10.37,2013-02-23 08:13:00,
2013-02-23 00:14:00,33.8,24.0,29.73,SSW,202,4.9,5.8,67,0.00,CLR,,0.00,WeatherDisplay:10.37,2013-02-23 08:14:00,
2013-02-23 00:16:00,33.8,24.0,29.73,SSW,202,4.9,5.8,67,0.00,CLR,,0.00,WeatherDisplay:10.37,2013-02-23 08:16:00,
2013-02-23 00:17:00,33.8,24.0,29.73,SSW,202,4.9,5.8,67,0.00,CLR,,0.00,WeatherDisplay:10.37,2013-02-23 08:17:00,
2013-02-23 00:19:00,33.8,24.0,29.73,SSW,202,4.9,5.8,67,0.00,CLR,,0.00,WeatherDisplay:10.37,2013-02-23 08:19:00,
2013-02-23 00:21:00,33.8,24.0,29.73,SSW,202,4.9,5.8,67,0.00,CLR,,0.00,WeatherDisplay:10.37,2013-02-23 08:21:00,
2013-02-23 00:22:00,33.8,24.0,29.73,SSW,202,4.9,5.9,67,0.00,CLR,,0.00,WeatherDisplay:10.37,2013-02-23 08:22:00,
2013-02-23 00:24:00,33.8,24.0,29.73,SSW,202,4.9,5.8,67,0.00,CLR,,0.00,WeatherDisplay:10.37,2013-02-23 08:24:00,
2013-02-23 00:26:00,33.8,24.0,29.73,SSW,202,4.9,5.8,67,0.00,CLR,,0.00,WeatherDisplay:10.37,2013-02-23 08:26:00,
2013-02-23 00:27:00,33.8,24.0,29.73,SSW,202,4.9,5.9,67,0.00,CLR,,0.00,WeatherDisplay:10.37,2013-02-23 08:27:00,
2013-02-23 00:29:00,33.8,24.0,29.73,SSW,202,4.9,5.8,67,0.00,CLR,,0.00,WeatherDisplay:10.37,2013-02-23 08:29:00,
2013-02-23 00:30:00,33.8,24.0,29.73,SSW,202,4.9,5.8,67,0.00,CLR,,0.00,WeatherDisplay:10.37,2013-02-23 08:30:00,
2013-02-23 00:31:00,33.8,24.0,29.73,SSW,202,4.9,5.8,67,0.00,CLR,,0.00,WeatherDisplay:10.37,2013-02-23 08:31:00,
2013-02-23 00:32:00,33.8,24.0,29.73,SSW,202,4.9,5.9,67,0.00,CLR,,0.00,WeatherDisplay:10.37,2013-02-23 08:32:00,
2013-02-23 00:34:00,33.8,24.0,29.73,SSW,202,4.9,5.8,67,0.00,CLR,,0.00,WeatherDisplay:10.37,2013-02-23 08:34:00,
2013-02-23 00:35:00,33.8,24.0,29.73,SSW,202,4.9,5.8,67,0.00,CLR,,0.00,WeatherDisplay:10.37,2013-02-23 08:35:00,
2013-02-23 00:36:00,33.8,24.0,29.73,SSW,202,4.9,5.8,67,0.00,CLR,,0.00,WeatherDisplay:10.37,2013-02-23 08:36:00,
2013-02-23 00:37:00,33.8,24.0,29.73,SSW,202,4.9,5.9,67,0.00,CLR,,0.00,WeatherDisplay:10.37,2013-02-23 08:37:00,
2013-02-23 00:39:00,33.8,24.0,29.73,SSW,202,4.9,5.8,67,0.00,CLR,,0.00,WeatherDisplay:10.37,2013-02-23 08:39:00,
2013-02-23 00:40:00,33.8,24.0,29.73,SSW,202,4.9,5.8,67,0.00,CLR,,0.00,WeatherDisplay:10.37,2013-02-23 08:40:00,
2013-02-23 00:41:00,33.8,24.0,29.73,SSW,202,4.9,5.8,67,0.00,CLR,,0.00,WeatherDisplay:10.37,2013-02-23 08:41:00,
2013-02-23 00:42:00,33.8,24.0,29.73,SSW,202,4.9,5.9,67,0.00,CLR,,0.00,WeatherDisplay:10.37,2013-02-23 08:42:00,
2013-02-23 00:44:00,33.8,24.0,29.73,SSW,202,4.9,5.9,67,0.00,CLR,,0.00,WeatherDisplay:10.37,2013-02-23 08:44:00,
2013-02-23 00:45:00,33.8,24.0,29.73,SSW,202,4.9,5.9,67,0.00,CLR,,0.00,WeatherDisplay:10.37,2013-02-23 08:45:00,
2013-02-23 00:47:00,33.8,24.0,29.73,SSW,202,4.9,5.8,67,0.00,CLR,,0.00,WeatherDisplay:10.37,2013-02-23 08:47:00,
2013-02-23 07:21:00,22.8,18.4,29.73,NNW,338,0.7,0.0,83,0.00,CLR,,0.80,WeatherDisplay:10.37,2013-02-23 15:21:00,
2013-02-23 07:26:00,23.9,19.5,29.74,SSE,158,1.1,2.9,83,0.00,CLR,,0.80,WeatherDisplay:10.37,2013-02-23 15:26:00,
2013-02-23 07:31:00,24.4,20.0,29.74,SSE,158,1.4,2.3,83,0.00,CLR,,0.80,WeatherDisplay:10.37,2013-02-23 15:31:00,
2013-02-23 07:36:00,25.0,20.0,29.74,SW,225,1.8,2.4,81,0.00,CLR,,0.80,WeatherDisplay:10.37,2013-02-23 15:36:00,
2013-02-23 07:37:00,25.0,20.0,29.74,SW,225,1.8,2.3,81,0.00,CLR,,0.80,WeatherDisplay:10.37,2013-02-23 15:37:00,
2013-02-23 07:41:00,25.5,19.9,29.74,SSE,158,2.1,2.3,79,0.00,CLR,,0.80,WeatherDisplay:10.37,2013-02-23 15:41:00,
2013-02-23 07:42:00,25.7,19.8,29.74,SSE,158,2.1,2.3,78,0.00,CLR,,0.80,WeatherDisplay:10.37,2013-02-23 15:42:00,
2013-02-23 07:46:00,25.9,19.4,29.75,WSW,248,2.6,4.6,76,0.00,CLR,,0.80,WeatherDisplay:10.37,2013-02-23 15:46:00,
2013-02-23 07:47:00,26.1,19.2,29.75,WSW,248,2.6,4.6,75,0.00,CLR,,0.80,WeatherDisplay:10.37,2013-02-23 15:47:00,
2013-02-23 07:51:00,26.4,18.9,29.75,East,90,2.4,3.5,73,0.00,CLR,,0.80,WeatherDisplay:10.37,2013-02-23 15:51:00,
2013-02-23 07:52:00,26.4,18.9,29.75,East,90,2.4,3.5,73,0.00,CLR,,0.80,WeatherDisplay:10.37,2013-02-23 15:52:00,
2013-02-23 07:56:00,26.6,18.8,29.75,South,180,2.0,2.3,72,0.00,CLR,,0.80,WeatherDisplay:10.37,2013-02-23 15:56:00,
2013-02-23 07:57:00,26.6,18.5,29.75,South,180,1.8,2.3,71,0.00,CLR,,0.80,WeatherDisplay:10.37,2013-02-23 15:57:00,
2013-02-23 08:01:00,26.8,18.6,29.75,NNW,338,1.3,2.3,71,0.00,CLR,,0.80,WeatherDisplay:10.37,2013-02-23 16:01:00,
2013-02-23 08:02:00,26.8,18.6,29.75,NNW,338,1.3,3.5,71,0.00,CLR,,0.80,WeatherDisplay:10.37,2013-02-23 16:02:00,
2013-02-23 08:06:00,27.1,18.6,29.75,NE,45,1.4,4.6,70,0.00,CLR,,0.80,WeatherDisplay:10.37,2013-02-23 16:06:00,
2013-02-23 08:07:00,27.3,18.8,29.75,SE,135,1.4,4.6,70,0.00,CLR,,0.80,WeatherDisplay:10.37,2013-02-23 16:07:00,
2013-02-23 08:08:00,27.3,18.8,29.75,SE,135,1.4,4.6,70,0.00,CLR,,0.80,WeatherDisplay:10.37,2013-02-23 16:08:00,
2013-02-23 08:11:00,27.5,18.7,29.75,North,0,2.1,5.2,69,0.00,CLR,,0.80,WeatherDisplay:10.37,2013-02-23 16:11:00,
2013-02-23 08:12:00,27.5,18.7,29.75,North,0,2.1,4.6,69,0.00,CLR,,0.80,WeatherDisplay:10.37,2013-02-23 16:12:00,
2013-02-23 08:13:00,27.5,18.7,29.75,NNW,338,2.3,4.6,69,0.00,CLR,,0.80,WeatherDisplay:10.37,2013-02-23 16:13:00,
2013-02-23 08:16:00,27.5,18.7,29.75,ENE,68,2.3,3.7,69,0.00,CLR,,0.80,WeatherDisplay:10.37,2013-02-23 16:16:00,
2013-02-23 08:17:00,27.7,18.8,29.75,ENE,68,2.4,3.5,69,0.00,CLR,,0.80,WeatherDisplay:10.37,2013-02-23 16:17:00,
2013-02-23 08:19:00,27.7,18.8,29.75,ENE,68,2.4,2.5,69,0.00,CLR,,0.80,WeatherDisplay:10.37,2013-02-23 16:19:00,
2013-02-23 08:21:00,27.9,19.3,29.75,SE,135,2.3,2.3,70,0.00,CLR,,0.80,WeatherDisplay:10.37,2013-02-23 16:21:00,
2013-02-23 08:22:00,27.9,19.3,29.75,SE,135,2.3,2.3,70,0.00,CLR,,0.80,WeatherDisplay:10.37,2013-02-23 16:22:00,
2013-02-23 08:23:00,27.9,19.3,29.75,SE,135,2.3,2.3,70,0.00,CLR,,0.80,WeatherDisplay:10.37,2013-02-23 16:23:00,
2013-02-23 08:24:00,27.9,19.3,29.77,South,180,2.0,2.3,70,0.00,CLR,,0.80,WeatherDisplay:10.37,2013-02-23 16:24:00,
2013-02-23 08:26:00,27.9,19.3,29.77,East,90,1.8,2.3,70,0.00,CLR,,0.80,WeatherDisplay:10.37,2013-02-23 16:26:00,
2013-02-23 08:27:00,27.9,19.3,29.77,East,90,1.8,1.8,70,0.00,CLR,,0.80,WeatherDisplay:10.37,2013-02-23 16:27:00,
2013-02-23 08:28:00,28.0,19.2,29.77,NNE,22,1.8,3.8,69,0.00,CLR,,0.80,WeatherDisplay:10.37,2013-02-23 16:28:00,
2013-02-23 08:29:00,28.2,19.3,29.77,North,0,1.8,4.1,69,0.00,CLR,,0.80,WeatherDisplay:10.37,2013-02-23 16:29:00,
2013-02-23 08:32:00,28.8,19.9,29.77,NNE,22,2.0,4.6,69,0.00,CLR,,0.80,WeatherDisplay:10.37,2013-02-23 16:32:00,
2013-02-23 08:33:00,28.8,19.9,29.77,NNE,22,2.0,3.5,69,0.00,CLR,,0.80,WeatherDisplay:10.37,2013-02-23 16:33:00,
2013-02-23 08:34:00,29.1,20.2,29.77,SE,135,2.3,3.5,69,0.00,CLR,,0.80,WeatherDisplay:10.37,2013-02-23 16:34:00,
2013-02-23 08:35:00,21.6,16.1,29.95,NNW,339,0.0,0.0,79,0.00,CLR,CLR,0.83,WeatherDisplay:10.37,2013-02-23 16:35:00,
2013-02-23 08:37:00,29.5,20.6,29.77,South,180,2.3,4.6,69,0.00,CLR,,0.80,WeatherDisplay:10.37,2013-02-23 16:37:00,
2013-02-23 08:38:00,30.0,21.1,29.77,NNE,22,2.3,4.6,69,0.00,CLR,,0.80,WeatherDisplay:10.37,2013-02-23 16:38:00,
2013-02-23 08:39:00,30.2,20.9,29.77,SW,225,2.3,2.3,68,0.00,CLR,,0.80,WeatherDisplay:10.37,2013-02-23 16:39:00,
2013-02-23 08:40:00,21.4,15.9,29.95,North,6,0.0,0.0,79,0.00,CLR,CLR,0.83,WeatherDisplay:10.37,2013-02-23 16:40:00,
2013-02-23 08:42:00,30.4,21.1,29.77,SSE,158,2.2,2.3,68,0.00,CLR,,0.80,WeatherDisplay:10.37,2013-02-23 16:42:00,
2013-02-23 08:43:00,30.6,21.2,29.78,ENE,68,2.1,3.8,68,0.00,CLR,,0.80,WeatherDisplay:10.37,2013-02-23 16:43:00,
2013-02-23 08:45:00,30.6,21.2,29.78,ESE,123,2.0,4.0,68,0.00,CLR,CLR,0.80,WeatherDisplay:10.37,2013-02-23 16:45:00,
2013-02-23 08:47:00,31.6,21.6,29.78,ENE,68,2.2,6.8,66,0.00,CLR,,0.80,WeatherDisplay:10.37,2013-02-23 16:47:00,
2013-02-23 08:49:00,31.6,21.6,29.78,ENE,68,2.2,6.9,66,0.00,CLR,,0.80,WeatherDisplay:10.37,2013-02-23 16:49:00,
2013-02-23 08:50:00,31.8,21.7,29.78,NE,45,2.3,6.9,66,0.00,CLR,,0.80,WeatherDisplay:10.37,2013-02-23 16:50:00,
2013-02-23 08:52:00,32.4,22.3,29.78,SSW,202,2.6,3.5,66,0.00,CLR,,0.80,WeatherDisplay:10.37,2013-02-23 16:52:00,
2013-02-23 08:54:00,32.9,22.4,29.78,South,180,2.5,3.5,65,0.00,CLR,,0.80,WeatherDisplay:10.37,2013-02-23 16:54:00,
2013-02-23 08:55:00,33.3,22.8,29.78,South,180,2.6,4.5,65,0.00,CLR,,0.80,WeatherDisplay:10.37,2013-02-23 16:55:00,
2013-02-23 08:57:00,33.4,22.6,29.78,SSE,158,2.8,4.6,64,0.00,CLR,,0.80,WeatherDisplay:10.37,2013-02-23 16:57:00,
2013-02-23 08:59:00,33.4,22.6,29.78,SSE,158,2.8,3.5,64,0.00,CLR,,0.80,WeatherDisplay:10.37,2013-02-23 16:59:00,
2013-02-23 09:00:00,21.2,16.0,29.96,ENE,61,0.0,0.0,80,0.00,CLR,CLR,0.83,WeatherDisplay:10.37,2013-02-23 17:00:00,
2013-02-23 09:01:00,33.3,22.0,29.78,NE,45,2.6,3.8,63,0.00,CLR,,0.80,WeatherDisplay:10.37,2013-02-23 17:01:00,
2013-02-23 09:02:00,33.3,22.0,29.78,SE,135,2.6,4.6,63,0.00,CLR,,0.80,WeatherDisplay:10.37,2013-02-23 17:02:00,
2013-02-23 09:03:00,33.3,22.0,29.78,SE,135,2.6,4.6,63,0.00,CLR,,0.80,WeatherDisplay:10.37,2013-02-23 17:03:00,
2013-02-23 09:04:00,32.9,21.3,29.78,South,180,2.5,4.6,62,0.00,CLR,,0.80,WeatherDisplay:10.37,2013-02-23 17:04:00,
2013-02-23 09:05:00,21.0,15.8,29.96,SSE,147,0.0,0.0,80,0.00,RA,RA,0.00,WeatherDisplay:10.37,2013-02-23 17:05:00,
2013-02-23 09:06:00,32.9,21.7,29.78,NE,45,2.4,3.5,63,0.00,CLR,,0.80,WeatherDisplay:10.37,2013-02-23 17:06:00,
2013-02-23 09:07:00,33.3,22.0,29.78,SSE,158,2.2,3.5,63,0.00,CLR,,0.80,WeatherDisplay:10.37,2013-02-23 17:07:00,
2013-02-23 09:08:00,33.3,22.0,29.78,SSE,158,2.2,3.5,63,0.00,CLR,,0.80,WeatherDisplay:10.37,2013-02-23 17:08:00,
2013-02-23 09:09:00,33.6,22.4,29.78,WSW,248,2.1,2.8,63,0.00,CLR,,0.80,WeatherDisplay:10.37,2013-02-23 17:09:00,
2013-02-23 09:11:00,33.6,22.4,29.78,WSW,248,2.1,2.3,63,0.00,CLR,,0.80,WeatherDisplay:10.37,2013-02-23 17:11:00,
2013-02-23 09:13:00,33.6,22.4,29.78,SSE,158,2.2,3.5,63,0.00,CLR,,0.80,WeatherDisplay:10.37,2013-02-23 17:13:00,
2013-02-23 09:15:00,33.8,22.1,29.78,SE,135,2.3,3.5,62,0.00,CLR,,0.80,WeatherDisplay:10.37,2013-02-23 17:15:00,
2013-02-23 09:16:00,33.3,21.3,29.78,East,90,2.3,3.5,61,0.00,CLR,,0.80,WeatherDisplay:10.37,2013-02-23 17:16:00,
2013-02-23 09:18:00,33.1,21.5,29.78,West,270,2.4,3.5,62,0.00,CLR,,0.80,WeatherDisplay:10.37,2013-02-23 17:18:00,
2013-02-23 09:20:00,33.3,22.0,29.78,NW,315,2.3,3.5,63,0.00,CLR,,0.80,WeatherDisplay:10.37,2013-02-23 17:20:00,
2013-02-23 09:21:00,33.4,21.8,29.78,South,180,2.2,4.6,62,0.00,CLR,,0.80,WeatherDisplay:10.37,2013-02-23 17:21:00,
2013-02-23 09:23:00,33.4,21.8,29.78,NW,315,1.6,4.6,62,0.00,CLR,,0.80,WeatherDisplay:10.37,2013-02-23 17:23:00,
2013-02-23 09:25:00,33.4,21.8,29.78,NW,315,1.6,4.6,62,0.00,CLR,,0.80,WeatherDisplay:10.37,2013-02-23 17:25:00,
2013-02-23 09:26:00,33.8,22.5,29.78,ENE,68,1.5,1.5,63,0.00,CLR,,0.80,WeatherDisplay:10.37,2013-02-23 17:26:00,
2013-02-23 09:28:00,34.0,22.3,29.78,NNE,22,1.1,1.3,62,0.00,CLR,,0.80,WeatherDisplay:10.37,2013-02-23 17:28:00,
2013-02-23 09:29:00,34.0,22.3,29.78,NNE,22,1.1,1.3,62,0.00,CLR,,0.80,WeatherDisplay:10.37,2013-02-23 17:29:00,
2013-02-23 09:30:00,34.2,22.5,29.78,East,90,1.0,4.6,62,0.00,CLR,,0.80,WeatherDisplay:10.37,2013-02-23 17:30:00,
2013-02-23 09:31:00,34.2,22.1,29.78,NNE,22,1.1,4.6,61,0.00,CLR,,0.80,WeatherDisplay:10.37,2013-02-23 17:31:00,
2013-02-23 09:33:00,34.5,21.7,29.78,South,180,1.1,2.3,59,0.00,CLR,,0.80,WeatherDisplay:10.37,2013-02-23 17:33:00,
2013-02-23 09:34:00,34.5,21.7,29.78,South,180,1.1,4.6,59,0.00,CLR,,0.80,WeatherDisplay:10.37,2013-02-23 17:34:00,
2013-02-23 09:35:00,34.7,21.8,29.78,ENE,68,2.0,4.6,59,0.00,CLR,,0.80,WeatherDisplay:10.37,2013-02-23 17:35:00,
2013-02-23 09:36:00,34.7,21.8,29.78,ENE,68,2.0,4.6,59,0.00,CLR,,0.80,WeatherDisplay:10.37,2013-02-23 17:36:00,
2013-02-23 09:38:00,34.9,22.0,29.78,WSW,248,2.3,3.5,59,0.00,CLR,,0.80,WeatherDisplay:10.37,2013-02-23 17:38:00,
2013-02-23 09:39:00,35.2,22.7,29.78,ESE,112,2.5,2.8,60,0.00,CLR,,0.80,WeatherDisplay:10.37,2013-02-23 17:39:00,
2013-02-23 09:40:00,35.2,22.7,29.78,ESE,112,2.5,2.8,60,0.00,CLR,,0.80,WeatherDisplay:10.37,2013-02-23 17:40:00,
2013-02-23 09:42:00,35.4,22.5,29.78,NNE,22,2.5,2.5,59,0.00,CLR,,0.80,WeatherDisplay:10.37,2013-02-23 17:42:00,
2013-02-23 09:44:00,35.6,22.7,29.80,NNW,338,2.6,3.9,59,0.00,CLR,,0.80,WeatherDisplay:10.37,2013-02-23 17:44:00,
2013-02-23 09:45:00,36.1,23.2,29.80,NNE,22,2.5,3.5,59,0.00,CLR,,0.80,WeatherDisplay:10.37,2013-02-23 17:45:00,
2013-02-23 09:47:00,36.9,23.9,29.80,NW,315,2.4,2.4,59,0.00,CLR,,0.80,WeatherDisplay:10.37,2013-02-23 17:47:00,
2013-02-23 09:49:00,36.9,23.9,29.80,NW,315,2.4,3.5,59,0.00,CLR,,0.80,WeatherDisplay:10.37,2013-02-23 17:49:00,
2013-02-23 09:50:00,37.0,23.6,29.80,ENE,68,2.5,5.8,58,0.00,CLR,,0.80,WeatherDisplay:10.37,2013-02-23 17:50:00,
2013-02-23 09:52:00,37.2,23.8,29.80,ESE,112,2.6,5.8,58,0.03,RA,,0.83,WeatherDisplay:10.37,2013-02-23 17:52:00,
2013-02-23 09:54:00,37.4,23.5,29.80,NNW,338,2.8,3.5,57,0.03,RA,,0.83,WeatherDisplay:10.37,2013-02-23 17:54:00,
2013-02-23 09:55:00,37.4,24.0,29.80,SSE,158,2.6,2.6,58,0.03,RA,,0.83,WeatherDisplay:10.37,2013-02-23 17:55:00,
2013-02-23 09:58:00,36.9,23.0,29.80,NNW,338,2.8,3.5,57,0.03,RA,,0.83,WeatherDisplay:10.37,2013-02-23 17:58:00,
2013-02-23 09:59:00,36.7,22.4,29.80,SSE,158,3.0,3.5,56,0.03,RA,,0.83,WeatherDisplay:10.37,2013-02-23 17:59:00,
2013-02-23 10:00:00,36.7,22.4,29.80,SSE,158,3.0,4.6,56,0.03,RA,,0.83,WeatherDisplay:10.37,2013-02-23 18:00:00,
2013-02-23 10:03:00,36.3,22.5,29.80,SSE,158,2.9,2.9,57,0.03,,,0.83,WeatherDisplay:10.37,2013-02-23 18:03:00,
2013-02-23 10:04:00,36.1,22.4,29.81,ESE,112,2.8,3.5,57,0.03,CLR,,0.83,WeatherDisplay:10.37,2013-02-23 18:04:00,
2013-02-23 10:05:00,20.1,15.8,29.97,NE,37,0.0,0.0,83,0.00,CLR,CLR,0.00,WeatherDisplay:10.37,2013-02-23 18:05:00,
2013-02-23 10:06:00,36.0,22.2,29.81,NNW,338,3.0,3.5,57,0.03,CLR,,0.83,WeatherDisplay:10.37,2013-02-23 18:06:00,
2013-02-23 10:08:00,36.0,22.2,29.81,SW,225,3.2,6.9,57,0.03,CLR,,0.83,WeatherDisplay:10.37,2013-02-23 18:08:00,
2013-02-23 10:09:00,35.8,22.0,29.81,SW,225,3.1,6.9,57,0.03,CLR,,0.83,WeatherDisplay:10.37,2013-02-23 18:09:00,
2013-02-23 10:10:00,20.1,15.8,29.97,ESE,123,0.0,2.0,83,0.00,CLR,CLR,0.00,WeatherDisplay:10.37,2013-02-23 18:10:00,
2013-02-23 10:11:00,35.8,22.0,29.81,SW,225,3.1,3.1,57,0.03,CLR,,0.83,WeatherDisplay:10.37,2013-02-23 18:11:00,
2013-02-23 10:13:00,36.1,22.8,29.81,ENE,68,3.1,6.6,58,0.03,CLR,,0.83,WeatherDisplay:10.37,2013-02-23 18:13:00,
2013-02-23 10:14:00,36.1,22.8,29.81,ENE,68,3.1,6.9,58,0.03,CLR,,0.83,WeatherDisplay:10.37,2013-02-23 18:14:00,
2013-02-23 10:15:00,36.1,22.8,29.81,WNW,284,3.0,7.0,58,0.00,CLR,CLR,0.83,WeatherDisplay:10.37,2013-02-23 18:15:00,
2013-02-23 10:16:00,36.1,22.8,29.81,ENE,68,3.0,6.9,58,0.03,CLR,,0.83,WeatherDisplay:10.37,2013-02-23 18:16:00,
2013-02-23 10:18:00,36.1,22.8,29.81,WSW,248,3.0,4.6,58,0.03,CLR,,0.83,WeatherDisplay:10.37,2013-02-23 18:18:00,
2013-02-23 10:20:00,36.1,22.8,29.81,NE,45,2.8,3.5,58,0.03,CLR,,0.83,WeatherDisplay:10.37,2013-02-23 18:20:00,
2013-02-23 10:21:00,36.5,23.1,29.81,SSE,158,3.0,4.6,58,0.03,CLR,,0.83,WeatherDisplay:10.37,2013-02-23 18:21:00,
2013-02-23 10:24:00,36.9,23.9,29.82,North,0,2.8,3.5,59,0.03,CLR,,0.83,WeatherDisplay:10.37,2013-02-23 18:24:00,
2013-02-23 10:25:00,36.9,23.9,29.82,North,0,2.8,3.5,59,0.03,CLR,,0.83,WeatherDisplay:10.37,2013-02-23 18:25:00,
2013-02-23 10:26:00,36.9,23.9,29.82,NNE,22,2.6,3.5,59,0.03,CLR,,0.83,WeatherDisplay:10.37,2013-02-23 18:26:00,
2013-02-23 10:29:00,37.0,23.6,29.82,NNE,22,2.8,6.9,58,0.03,CLR,,0.83,WeatherDisplay:10.37,2013-02-23 18:29:00,
2013-02-23 10:30:00,37.0,23.6,29.82,West,270,2.9,2.9,58,0.03,CLR,,0.83,WeatherDisplay:10.37,2013-02-23 18:30:00,
2013-02-23 10:31:00,37.0,23.6,29.82,West,270,2.9,2.9,58,0.03,CLR,,0.83,WeatherDisplay:10.37,2013-02-23 18:31:00,
2013-02-23 10:32:00,37.2,23.8,29.82,SSE,158,3.0,3.0,58,0.03,CLR,,0.83,WeatherDisplay:10.37,2013-02-23 18:32:00,
2013-02-23 10:34:00,37.6,24.1,29.82,ESE,112,3.0,8.1,58,0.03,CLR,,0.83,WeatherDisplay:10.37,2013-02-23 18:34:00,
2013-02-23 10:35:00,37.6,24.1,29.82,ESE,112,3.0,3.5,58,0.03,CLR,,0.83,WeatherDisplay:10.37,2013-02-23 18:35:00,
2013-02-23 10:36:00,38.1,24.6,29.82,NNW,338,2.8,3.5,58,0.03,CLR,,0.83,WeatherDisplay:10.37,2013-02-23 18:36:00,
2013-02-23 10:37:00,38.1,24.6,29.82,NNW,338,2.8,3.5,58,0.03,CLR,,0.83,WeatherDisplay:10.37,2013-02-23 18:37:00,
2013-02-23 10:39:00,38.7,24.7,29.82,East,90,2.6,3.5,57,0.03,CLR,,0.83,WeatherDisplay:10.37,2013-02-23 18:39:00,
2013-02-23 10:40:00,38.7,24.7,29.82,East,90,2.6,3.5,57,0.03,CLR,,0.83,WeatherDisplay:10.37,2013-02-23 18:40:00,
2013-02-23 10:41:00,38.7,24.7,29.82,East,90,2.6,3.8,57,0.03,CLR,,0.83,WeatherDisplay:10.37,2013-02-23 18:41:00,
2013-02-23 10:42:00,39.6,25.6,29.82,NNW,338,2.5,3.5,57,0.03,CLR,,0.83,WeatherDisplay:10.37,2013-02-23 18:42:00,
2013-02-23 10:44:00,39.9,25.5,29.83,SE,135,2.1,3.5,56,0.03,CLR,,0.83,WeatherDisplay:10.37,2013-02-23 18:44:00,
2013-02-23 10:45:00,40.3,25.8,29.83,SSE,158,2.0,2.3,56,0.03,CLR,,0.83,WeatherDisplay:10.37,2013-02-23 18:45:00,
2013-02-23 10:46:00,40.3,25.8,29.83,SSE,158,2.0,2.3,56,0.03,CLR,,0.83,WeatherDisplay:10.37,2013-02-23 18:46:00,
2013-02-23 10:47:00,40.3,25.8,29.83,SSE,158,2.0,2.3,56,0.03,CLR,,0.83,WeatherDisplay:10.37,2013-02-23 18:47:00,
2013-02-23 10:49:00,40.5,26.0,29.83,South,180,1.6,3.5,56,0.03,CLR,,0.83,WeatherDisplay:10.37,2013-02-23 18:49:00,
2013-02-23 10:50:00,40.5,26.0,29.83,South,180,1.6,2.3,56,0.03,CLR,,0.83,WeatherDisplay:10.37,2013-02-23 18:50:00,
2013-02-23 10:51:00,40.5,26.0,29.83,South,180,1.6,2.3,56,0.03,CLR,,0.83,WeatherDisplay:10.37,2013-02-23 18:51:00,
2013-02-23 10:52:00,40.5,25.5,29.83,West,270,1.1,2.3,55,0.00,CLR,,0.83,WeatherDisplay:10.37,2013-02-23 18:52:00,
2013-02-23 10:54:00,40.5,25.5,29.83,South,180,1.0,0.0,55,0.00,CLR,,0.83,WeatherDisplay:10.37,2013-02-23 18:54:00,
2013-02-23 10:55:00,40.1,29.6,29.83,WSW,248,0.8,0.0,66,0.00,CLR,,0.83,WeatherDisplay:10.37,2013-02-23 18:55:00,
2013-02-23 10:56:00,40.1,29.6,29.83,WSW,248,0.8,2.3,66,0.00,CLR,,0.83,WeatherDisplay:10.37,2013-02-23 18:56:00,
2013-02-23 10:58:00,39.4,32.1,29.83,South,180,0.8,2.3,75,0.00,CLR,,0.83,WeatherDisplay:10.37,2013-02-23 18:58:00,
2013-02-23 10:59:00,38.1,31.9,29.83,NW,315,0.8,3.5,78,0.00,CLR,,0.83,WeatherDisplay:10.37,2013-02-23 18:59:00,
2013-02-23 11:00:00,38.1,31.9,29.83,NW,315,0.8,3.5,78,0.00,CLR,,0.83,WeatherDisplay:10.37,2013-02-23 19:00:00,
2013-02-23 11:01:00,37.4,31.5,29.83,South,180,1.1,3.5,79,0.00,CLR,,0.83,WeatherDisplay:10.37,2013-02-23 19:01:00,
2013-02-23 11:03:00,37.4,31.5,29.83,South,180,1.1,3.5,79,0.00,CLR,,0.83,WeatherDisplay:10.37,2013-02-23 19:03:00,
2013-02-23 11:04:00,37.2,32.5,29.82,WNW,292,1.4,3.5,83,0.00,CLR,,0.83,WeatherDisplay:10.37,2013-02-23 19:04:00,
2013-02-23 11:05:00,37.2,32.8,29.82,SW,225,2.0,3.5,84,0.00,CLR,,0.83,WeatherDisplay:10.37,2013-02-23 19:05:00,
2013-02-23 11:06:00,37.2,32.8,29.82,SW,225,2.0,3.5,84,0.00,CLR,,0.83,WeatherDisplay:10.37,2013-02-23 19:06:00,
2013-02-23 11:08:00,36.7,32.3,29.82,NW,315,2.1,3.5,84,0.00,CLR,,0.83,WeatherDisplay:10.37,2013-02-23 19:08:00,
2013-02-23 11:09:00,36.9,32.8,29.82,West,270,2.0,3.5,85,0.00,CLR,,0.83,WeatherDisplay:10.37,2013-02-23 19:09:00,
2013-02-23 11:10:00,36.9,32.8,29.82,West,270,2.0,3.5,85,0.00,CLR,,0.83,WeatherDisplay:10.37,2013-02-23 19:10:00,
2013-02-23 11:11:00,36.7,32.9,29.82,ENE,68,1.7,0.0,86,0.00,CLR,,0.83,WeatherDisplay:10.37,2013-02-23 19:11:00,
2013-02-23 11:13:00,36.7,32.9,29.82,ENE,68,1.7,0.0,86,0.00,CLR,,0.83,WeatherDisplay:10.37,2013-02-23 19:13:00,
2013-02-23 11:14:00,37.0,33.2,29.82,West,270,1.4,0.0,86,0.00,CLR,,0.83,WeatherDisplay:10.37,2013-02-23 19:14:00,
2013-02-23 11:15:00,19.0,15.3,29.97,NW,314,0.0,0.0,85,0.00,CLR,CLR,0.00,WeatherDisplay:10.37,2013-02-23 19:15:00,
2013-02-23 11:16:00,37.0,33.5,29.82,SSE,158,1.1,1.8,87,0.00,CLR,,0.83,WeatherDisplay:10.37,2013-02-23 19:16:00,
2013-02-23 11:18:00,37.0,33.8,29.82,SSW,202,0.8,2.3,88,0.00,CLR,,0.83,WeatherDisplay:10.37,2013-02-23 19:18:00,
2013-02-23 11:19:00,37.2,34.0,29.82,NNW,338,0.3,2.3,88,0.00,CLR,,0.83,WeatherDisplay:10.37,2013-02-23 19:19:00,
2013-02-23 11:20:00,19.2,15.5,29.97,North,11,0.0,0.0,85,0.00,CLR,CLR,0.00,WeatherDisplay:10.37,2013-02-23 19:20:00,
2013-02-23 11:21:00,37.2,34.0,29.82,NNW,338,0.3,0.0,88,0.00,CLR,,0.83,WeatherDisplay:10.37,2013-02-23 19:21:00,
2013-02-23 11:22:00,37.2,34.0,29.82,SSE,158,0.6,0.0,88,0.00,CLR,,0.83,WeatherDisplay:10.37,2013-02-23 19:22:00,
2013-02-23 11:23:00,37.2,34.0,29.82,SSE,158,0.6,2.3,88,0.00,CLR,,0.83,WeatherDisplay:10.37,2013-02-23 19:23:00,
2013-02-23 11:24:00,37.2,34.3,29.83,NNE,22,0.5,2.3,89,0.00,CLR,,0.83,WeatherDisplay:10.37,2013-02-23 19:24:00,
2013-02-23 11:25:00,19.6,16.1,29.96,East,88,0.0,1.0,86,0.00,CLR,CLR,0.00,WeatherDisplay:10.37,2013-02-23 19:25:00,
2013-02-23 11:26:00,37.0,33.8,29.83,NNW,338,0.3,0.0,88,0.00,CLR,,0.83,WeatherDisplay:10.37,2013-02-23 19:26:00,
2013-02-23 11:27:00,37.0,33.8,29.83,NNW,338,0.3,0.0,88,0.00,CLR,,0.83,WeatherDisplay:10.37,2013-02-23 19:27:00,
2013-02-23 11:28:00,36.9,33.6,29.83,West,270,0.3,0.0,88,0.00,CLR,,0.83,WeatherDisplay:10.37,2013-02-23 19:28:00,
2013-02-23 11:29:00,36.7,33.5,29.83,ENE,68,0.1,0.0,88,0.00,CLR,,0.83,WeatherDisplay:10.37,2013-02-23 19:29:00,
2013-02-23 11:30:00,19.6,16.1,29.96,SE,136,1.0,3.0,86,0.00,CLR,CLR,0.00,WeatherDisplay:10.37,2013-02-23 19:30:00,
2013-02-23 11:32:00,37.0,33.8,29.83,ENE,68,0.1,0.0,88,0.00,CLR,,0.83,WeatherDisplay:10.37,2013-02-23 19:32:00,
2013-02-23 11:34:00,37.2,34.3,29.83,NNE,22,0.0,0.0,89,0.00,CLR,,0.83,WeatherDisplay:10.37,2013-02-23 19:34:00,
2013-02-23 11:35:00,37.2,34.3,29.83,NNE,22,0.0,0.0,89,0.00,CLR,,0.83,WeatherDisplay:10.37,2013-02-23 19:35:00,
2013-02-23 11:37:00,37.4,34.5,29.83,ESE,112,0.0,0.0,89,0.00,CLR,,0.83,WeatherDisplay:10.37,2013-02-23 19:37:00,
2013-02-23 11:39:00,37.8,34.8,29.83,NE,45,0.0,0.0,89,0.00,CLR,,0.83,WeatherDisplay:10.37,2013-02-23 19:39:00,
2013-02-23 11:40:00,37.2,34.3,29.83,South,180,0.0,0.0,89,0.00,CLR,,0.83,WeatherDisplay:10.37,2013-02-23 19:40:00,
2013-02-23 11:42:00,37.2,34.0,29.83,East,90,0.0,0.0,88,0.00,CLR,,0.83,WeatherDisplay:10.37,2013-02-23 19:42:00,
2013-02-23 11:44:00,37.4,34.2,29.83,ENE,68,0.0,0.0,88,0.00,CLR,,0.83,WeatherDisplay:10.37,2013-02-23 19:44:00,
2013-02-23 11:45:00,37.4,34.2,29.83,ENE,68,0.0,0.0,88,0.00,CLR,,0.83,WeatherDisplay:10.37,2013-02-23 19:45:00,
2013-02-23 11:47:00,37.9,34.7,29.83,ENE,68,0.0,0.0,88,0.00,CLR,,0.83,WeatherDisplay:10.37,2013-02-23 19:47:00,
2013-02-23 11:49:00,37.8,34.5,29.83,WSW,248,0.0,0.0,88,0.00,CLR,,0.83,WeatherDisplay:10.37,2013-02-23 19:49:00,
2013-02-23 11:50:00,37.8,34.5,29.83,WSW,248,0.0,0.0,88,0.00,CLR,,0.83,WeatherDisplay:10.37,2013-02-23 19:50:00,
2013-02-23 11:52:00,37.4,34.2,29.83,West,270,0.2,1.1,88,0.00,CLR,,0.83,WeatherDisplay:10.37,2013-02-23 19:52:00,
2013-02-23 11:53:00,37.4,34.2,29.83,West,270,0.2,1.1,88,0.00,CLR,,0.83,WeatherDisplay:10.37,2013-02-23 19:53:00,
2013-02-23 11:54:00,37.2,34.0,29.83,NNW,338,0.3,1.1,88,0.00,CLR,,0.83,WeatherDisplay:10.37,2013-02-23 19:54:00,
2013-02-23 11:55:00,37.4,33.9,29.83,NNW,338,0.2,0.0,87,0.00,CLR,,0.83,WeatherDisplay:10.37,2013-02-23 19:55:00,
2013-02-23 11:57:00,37.9,34.7,29.83,ENE,68,0.2,0.0,88,0.00,CLR,,0.83,WeatherDisplay:10.37,2013-02-23 19:57:00,
2013-02-23 11:58:00,37.9,34.7,29.83,ENE,68,0.2,0.0,88,0.00,CLR,,0.83,WeatherDisplay:10.37,2013-02-23 19:58:00,
2013-02-23 12:00:00,37.8,34.5,29.83,North,0,0.2,0.0,88,0.00,CLR,,0.83,WeatherDisplay:10.37,2013-02-23 20:00:00,
2013-02-23 12:01:00,37.8,34.5,29.83,North,0,0.2,0.0,88,0.00,CLR,,0.83,WeatherDisplay:10.37,2013-02-23 20:01:00,
2013-02-23 12:02:00,37.2,34.0,29.83,NNE,22,0.2,0.0,88,0.00,CLR,,0.83,WeatherDisplay:10.37,2013-02-23 20:02:00,
2013-02-23 12:03:00,37.2,34.0,29.83,NNE,22,0.2,0.0,88,0.00,CLR,,0.83,WeatherDisplay:10.37,2013-02-23 20:03:00,
2013-02-23 12:05:00,37.6,34.3,29.83,NE,45,0.1,1.1,88,0.00,CLR,,0.83,WeatherDisplay:10.37,2013-02-23 20:05:00,
2013-02-23 12:06:00,37.6,34.3,29.83,East,90,0.2,2.0,88,0.00,CLR,,0.83,WeatherDisplay:10.37,2013-02-23 20:06:00,
2013-02-23 12:07:00,37.6,34.3,29.83,East,90,0.2,2.3,88,0.00,CLR,,0.83,WeatherDisplay:10.37,2013-02-23 20:07:00,
2013-02-23 12:08:00,37.6,34.3,29.83,East,90,0.2,2.3,88,0.00,CLR,,0.83,WeatherDisplay:10.37,2013-02-23 20:08:00,
2013-02-23 12:10:00,37.6,34.3,29.83,East,90,0.2,2.3,88,0.00,CLR,,0.83,WeatherDisplay:10.37,2013-02-23 20:10:00,
2013-02-23 12:11:00,37.6,34.3,29.83,East,90,0.2,2.3,88,0.00,CLR,,0.83,WeatherDisplay:10.37,2013-02-23 20:11:00,
2013-02-23 12:13:00,37.6,34.3,29.83,East,90,0.2,2.3,88,0.00,CLR,,0.83,WeatherDisplay:10.37,2013-02-23 20:13:00,
2013-02-23 12:15:00,38.1,35.2,29.83,South,180,0.1,2.3,89,0.00,CLR,,0.83,WeatherDisplay:10.37,2013-02-23 20:15:00,
2013-02-23 12:16:00,38.1,35.2,29.83,South,180,0.1,2.3,89,0.00,CLR,,0.83,WeatherDisplay:10.37,2013-02-23 20:16:00,
2013-02-23 12:18:00,38.3,35.3,29.83,ESE,112,0.1,0.0,89,0.00,CLR,,0.83,WeatherDisplay:10.37,2013-02-23 20:18:00,
2013-02-23 12:19:00,38.3,35.3,29.83,ESE,112,0.1,0.0,89,0.00,CLR,,0.83,WeatherDisplay:10.37,2013-02-23 20:19:00,
2013-02-23 12:20:00,38.5,35.5,29.83,ESE,112,0.0,0.0,89,0.00,CLR,,0.83,WeatherDisplay:10.37,2013-02-23 20:20:00,
2013-02-23 12:21:00,38.7,35.7,29.83,SSE,158,0.1,0.0,89,0.00,CLR,,0.83,WeatherDisplay:10.37,2013-02-23 20:21:00,
2013-02-23 12:23:00,38.8,35.9,29.83,SSE,158,0.1,1.3,89,0.00,CLR,,0.83,WeatherDisplay:10.37,2013-02-23 20:23:00,
2013-02-23 12:24:00,38.8,35.9,29.82,East,90,0.1,1.1,89,0.00,CLR,,0.83,WeatherDisplay:10.37,2013-02-23 20:24:00,
2013-02-23 12:25:00,38.8,35.9,29.82,WSW,248,0.2,0.0,89,0.00,CLR,,0.83,WeatherDisplay:10.37,2013-02-23 20:25:00,
2013-02-23 12:26:00,38.8,35.9,29.82,WSW,248,0.2,0.0,89,0.00,CLR,,0.83,WeatherDisplay:10.37,2013-02-23 20:26:00,
2013-02-23 12:28:00,38.7,35.7,29.82,NNE,22,0.3,1.1,89,0.00,CLR,,0.83,WeatherDisplay:10.37,2013-02-23 20:28:00,
2013-02-23 12:29:00,38.8,35.9,29.82,NNE,22,0.3,1.1,89,0.00,CLR,,0.83,WeatherDisplay:10.37,2013-02-23 20:29:00,
2013-02-23 12:30:00,19.9,16.7,29.95,ESE,122,2.0,3.0,87,0.00,CLR,CLR,0.00,WeatherDisplay:10.37,2013-02-23 20:30:00,
2013-02-23 12:31:00,38.8,35.9,29.82,West,270,0.3,1.1,89,0.00,CLR,,0.83,WeatherDisplay:10.37,2013-02-23 20:31:00,
2013-02-23 12:33:00,38.1,34.9,29.82,WNW,292,0.3,0.0,88,0.00,CLR,,0.83,WeatherDisplay:10.37,2013-02-23 20:33:00,
2013-02-23 12:34:00,38.1,34.9,29.82,NNE,22,0.3,0.0,88,0.00,CLR,,0.83,WeatherDisplay:10.37,2013-02-23 20:34:00,
2013-02-23 12:35:00,20.1,16.9,29.95,SE,128,2.0,3.0,87,0.00,CLR,CLR,0.00,WeatherDisplay:10.37,2013-02-23 20:35:00,
2013-02-23 12:36:00,38.1,34.6,29.82,North,0,0.2,0.0,87,0.00,CLR,,0.83,WeatherDisplay:10.37,2013-02-23 20:36:00,
2013-02-23 12:38:00,38.3,35.1,29.82,NW,315,0.2,0.0,88,0.00,CLR,,0.83,WeatherDisplay:10.37,2013-02-23 20:38:00,
2013-02-23 12:39:00,38.5,35.2,29.82,NW,315,0.1,0.0,88,0.00,CLR,,0.83,WeatherDisplay:10.37,2013-02-23 20:39:00,
2013-02-23 12:40:00,20.1,16.9,29.95,ESE,102,2.0,3.0,87,0.00,CLR,CLR,0.00,WeatherDisplay:10.37,2013-02-23 20:40:00,
2013-02-23 12:41:00,38.5,35.2,29.82,NW,315,0.1,0.0,88,0.00,CLR,,0.83,WeatherDisplay:10.37,2013-02-23 20:41:00,
2013-02-23 12:43:00,38.7,35.7,29.82,ESE,112,0.0,0.0,89,0.00,CLR,,0.83,WeatherDisplay:10.37,2013-02-23 20:43:00,
2013-02-23 12:45:00,39.0,36.1,29.82,ESE,112,0.0,0.0,89,0.00,CLR,,0.83,WeatherDisplay:10.37,2013-02-23 20:45:00,
2013-02-23 12:46:00,39.0,36.1,29.82,NNW,338,0.0,0.0,89,0.00,CLR,,0.83,WeatherDisplay:10.37,2013-02-23 20:46:00,
2013-02-23 12:48:00,38.8,35.9,29.82,NNW,338,0.0,0.0,89,0.00,CLR,,0.83,WeatherDisplay:10.37,2013-02-23 20:48:00,
2013-02-23 12:50:00,38.8,35.9,29.82,NNW,338,0.0,0.0,89,0.00,CLR,,0.83,WeatherDisplay:10.37,2013-02-23 20:50:00,
2013-02-23 12:51:00,38.8,35.9,29.82,NNW,338,0.0,0.0,89,0.00,CLR,,0.83,WeatherDisplay:10.37,2013-02-23 20:51:00,
2013-02-23 12:53:00,37.9,34.7,29.82,West,270,0.6,0.0,88,0.00,CLR,,0.83,WeatherDisplay:10.37,2013-02-23 20:53:00,
2013-02-23 12:55:00,37.8,34.5,29.82,West,270,0.6,0.0,88,0.00,CLR,,0.83,WeatherDisplay:10.37,2013-02-23 20:55:00,
2013-02-23 12:56:00,37.8,34.5,29.82,West,270,0.5,0.0,88,0.00,CLR,,0.83,WeatherDisplay:10.37,2013-02-23 20:56:00,
2013-02-23 12:58:00,37.9,34.7,29.82,West,270,0.5,0.0,88,0.00,CLR,,0.83,WeatherDisplay:10.37,2013-02-23 20:58:00,
2013-02-23 13:00:00,38.1,35.2,29.82,West,270,0.5,0.0,89,0.00,CLR,,0.83,WeatherDisplay:10.37,2013-02-23 21:00:00,
2013-02-23 13:01:00,38.5,35.5,29.82,West,270,0.5,0.0,89,0.00,CLR,,0.83,WeatherDisplay:10.37,2013-02-23 21:01:00,
2013-02-23 13:02:00,38.5,35.5,29.82,SE,135,0.2,0.0,89,0.00,CLR,,0.83,WeatherDisplay:10.37,2013-02-23 21:02:00,
2013-02-23 13:04:00,38.8,35.9,29.82,SE,135,0.5,2.3,89,0.00,CLR,,0.83,WeatherDisplay:10.37,2013-02-23 21:04:00,
2013-02-23 13:05:00,38.7,35.7,29.82,SE,135,0.5,2.3,89,0.00,CLR,,0.83,WeatherDisplay:10.37,2013-02-23 21:05:00,
2013-02-23 13:07:00,38.7,35.7,29.82,SSE,158,0.9,3.5,89,0.00,CLR,,0.83,WeatherDisplay:10.37,2013-02-23 21:07:00,
2013-02-23 13:09:00,38.7,35.4,29.82,SW,225,1.4,5.8,88,0.00,CLR,,0.83,WeatherDisplay:10.37,2013-02-23 21:09:00,
2013-02-23 13:10:00,38.7,35.4,29.82,ESE,112,2.0,6.9,88,0.00,CLR,,0.83,WeatherDisplay:10.37,2013-02-23 21:10:00,
2013-02-23 13:12:00,38.5,34.9,29.82,ESE,112,2.0,6.9,87,0.00,CLR,,0.83,WeatherDisplay:10.37,2013-02-23 21:12:00,
2013-02-23 13:14:00,38.3,34.5,29.82,ESE,112,2.0,6.9,86,0.00,CLR,,0.83,WeatherDisplay:10.37,2013-02-23 21:14:00,
2013-02-23 13:15:00,38.1,34.3,29.82,ESE,112,2.0,6.9,86,0.00,CLR,,0.83,WeatherDisplay:10.37,2013-02-23 21:15:00,
2013-02-23 13:17:00,38.3,34.5,29.82,ESE,112,2.0,6.9,86,0.00,CLR,,0.83,WeatherDisplay:10.37,2013-02-23 21:17:00,
2013-02-23 13:18:00,38.3,34.5,29.82,ESE,112,2.0,6.9,86,0.00,CLR,,0.83,WeatherDisplay:10.37,2013-02-23 21:18:00,
2013-02-23 13:19:00,38.3,34.8,29.82,ESE,112,2.0,6.9,87,0.00,CLR,,0.83,WeatherDisplay:10.37,2013-02-23 21:19:00,
2013-02-23 13:20:00,38.3,34.8,29.82,ESE,112,2.0,6.9,87,0.00,CLR,,0.83,WeatherDisplay:10.37,2013-02-23 21:20:00,
2013-02-23 13:22:00,37.9,34.1,29.82,ESE,112,2.0,6.9,86,0.00,CLR,,0.83,WeatherDisplay:10.37,2013-02-23 21:22:00,
2013-02-23 13:23:00,37.9,34.1,29.82,ESE,112,2.0,6.9,86,0.00,CLR,,0.83,WeatherDisplay:10.37,2013-02-23 21:23:00,
2013-02-23 13:24:00,37.9,34.1,29.82,SSE,158,4.1,8.1,86,0.00,CLR,,0.83,WeatherDisplay:10.37,2013-02-23 21:24:00,
2013-02-23 13:25:00,37.8,33.9,29.82,SE,135,4.4,8.1,86,0.00,CLR,,0.83,WeatherDisplay:10.37,2013-02-23 21:25:00,
2013-02-23 13:27:00,37.8,33.9,29.82,SE,135,4.4,8.1,86,0.00,CLR,,0.83,WeatherDisplay:10.37,2013-02-23 21:27:00,
2013-02-23 13:28:00,37.8,33.9,29.82,SE,135,4.4,6.9,86,0.00,CLR,,0.83,WeatherDisplay:10.37,2013-02-23 21:28:00,
2013-02-23 13:29:00,37.9,34.1,29.82,SSE,158,4.0,4.6,86,0.00,CLR,,0.83,WeatherDisplay:10.37,2013-02-23 21:29:00,
2013-02-23 13:30:00,37.9,34.1,29.82,SSE,158,4.0,4.6,86,0.00,CLR,,0.83,WeatherDisplay:10.37,2013-02-23 21:30:00,
2013-02-23 13:32:00,38.3,34.8,29.82,South,180,3.8,6.9,87,0.00,CLR,,0.83,WeatherDisplay:10.37,2013-02-23 21:32:00,
2013-02-23 13:33:00,38.5,34.7,29.82,South,180,3.8,6.9,86,0.00,CLR,,0.83,WeatherDisplay:10.37,2013-02-23 21:33:00,
2013-02-23 13:35:00,38.5,34.7,29.82,SE,135,4.0,12.7,86,0.00,CLR,,0.83,WeatherDisplay:10.37,2013-02-23 21:35:00,
2013-02-23 13:36:00,37.9,33.5,29.82,SSE,158,4.3,12.7,84,0.00,CLR,,0.83,WeatherDisplay:10.37,2013-02-23 21:36:00,
2013-02-23 13:37:00,37.4,32.4,29.82,SSE,158,4.3,6.9,82,0.00,CLR,,0.83,WeatherDisplay:10.37,2013-02-23 21:37:00,
2013-02-23 13:38:00,37.4,32.4,29.82,SSE,158,4.9,11.5,82,0.00,CLR,,0.83,WeatherDisplay:10.37,2013-02-23 21:38:00,
2013-02-23 13:40:00,37.2,32.2,29.82,South,180,5.2,11.5,82,0.00,CLR,,0.83,WeatherDisplay:10.37,2013-02-23 21:40:00,
2013-02-23 13:41:00,37.2,32.2,29.82,South,180,5.2,11.5,82,0.00,CLR,,0.83,WeatherDisplay:10.37,2013-02-23 21:41:00,
2013-02-23 13:43:00,37.2,32.2,29.83,SE,135,5.6,5.8,82,0.00,CLR,,0.83,WeatherDisplay:10.37,2013-02-23 21:43:00,
2013-02-23 13:45:00,37.2,32.2,29.83,SE,135,5.6,5.8,82,0.00,CLR,,0.83,WeatherDisplay:10.37,2013-02-23 21:45:00,
2013-02-23 13:46:00,37.2,32.5,29.83,SSE,158,5.2,5.2,83,0.00,CLR,,0.83,WeatherDisplay:10.37,2013-02-23 21:46:00,
2013-02-23 13:48:00,37.4,32.7,29.83,ENE,68,4.7,4.7,83,0.00,CLR,,0.83,WeatherDisplay:10.37,2013-02-23 21:48:00,
2013-02-23 13:50:00,37.4,31.8,29.83,SE,136,5.0,5.0,80,0.00,CLR,CLR,0.83,WeatherDisplay:10.37,2013-02-23 21:50:00,
2013-02-23 13:51:00,37.0,30.2,29.83,South,180,4.3,4.7,76,0.00,CLR,,0.83,WeatherDisplay:10.37,2013-02-23 21:51:00,
2013-02-23 13:53:00,37.0,30.2,29.83,NE,45,4.3,7.8,76,0.00,CLR,,0.83,WeatherDisplay:10.37,2013-02-23 21:53:00,
2013-02-23 13:55:00,37.4,30.5,29.83,NE,45,4.3,8.1,76,0.00,CLR,,0.83,WeatherDisplay:10.37,2013-02-23 21:55:00,
2013-02-23 13:56:00,37.4,30.5,29.83,SE,135,4.4,8.1,76,0.00,CLR,,0.83,WeatherDisplay:10.37,2013-02-23 21:56:00,
2013-02-23 13:58:00,37.6,31.0,29.83,SSE,158,4.3,6.9,77,0.00,CLR,,0.83,WeatherDisplay:10.37,2013-02-23 21:58:00,
2013-02-23 13:59:00,37.6,31.0,29.83,SSE,158,4.3,6.9,77,0.00,CLR,,0.83,WeatherDisplay:10.37,2013-02-23 21:59:00,
2013-02-23 14:00:00,37.4,28.9,29.83,SSE,158,4.3,7.4,71,0.00,CLR,,0.83,WeatherDisplay:10.37,2013-02-23 22:00:00,
2013-02-23 14:01:00,37.4,29.5,29.83,SSE,158,4.3,6.9,73,0.00,CLR,,0.83,WeatherDisplay:10.37,2013-02-23 22:01:00,
2013-02-23 14:03:00,37.2,28.7,29.83,SSE,158,4.3,7.4,71,0.00,CLR,,0.83,WeatherDisplay:10.37,2013-02-23 22:03:00,
2013-02-23 14:04:00,37.2,28.7,29.83,SSE,158,4.3,7.4,71,0.00,CLR,,0.83,WeatherDisplay:10.37,2013-02-23 22:04:00,
2013-02-23 14:05:00,37.2,29.4,29.83,SSE,158,4.3,7.4,73,0.00,CLR,,0.83,WeatherDisplay:10.37,2013-02-23 22:05:00,
2013-02-23 14:06:00,37.2,29.4,29.83,SSE,158,4.3,6.9,73,0.00,CLR,,0.83,WeatherDisplay:10.37,2013-02-23 22:06:00,
2013-02-23 14:09:00,37.4,28.9,29.83,SSE,158,4.3,6.9,71,0.00,CLR,,0.83,WeatherDisplay:10.37,2013-02-23 22:09:00,
2013-02-23 14:10:00,37.4,28.5,29.83,SSE,158,4.3,7.4,70,0.00,CLR,,0.83,WeatherDisplay:10.37,2013-02-23 22:10:00,
2013-02-23 14:11:00,37.6,29.7,29.83,SSE,158,4.3,6.9,73,0.00,CLR,,0.83,WeatherDisplay:10.37,2013-02-23 22:11:00,
2013-02-23 14:14:00,37.4,29.2,29.83,SSE,158,4.3,7.4,72,0.00,CLR,,0.83,WeatherDisplay:10.37,2013-02-23 22:14:00,
2013-02-23 14:15:00,37.4,28.5,29.83,SSE,158,4.3,7.4,70,0.00,CLR,,0.83,WeatherDisplay:10.37,2013-02-23 22:15:00,
2013-02-23 14:17:00,37.4,29.2,29.83,SSE,158,0.0,0.0,72,0.00,CLR,,0.83,WeatherDisplay:10.37,2013-02-23 22:17:00,
2013-02-23 14:19:00,37.4,29.2,29.83,SSE,158,0.0,0.0,72,0.00,CLR,,0.83,WeatherDisplay:10.37,2013-02-23 22:19:00,
2013-02-23 14:20:00,18.9,15.1,29.95,WSW,256,0.0,0.0,85,0.00,CLR,CLR,0.00,WeatherDisplay:10.37,2013-02-23 22:20:00,
2013-02-23 14:21:00,37.6,30.7,29.83,SSE,158,0.0,0.0,76,0.00,CLR,,0.83,WeatherDisplay:10.37,2013-02-23 22:21:00,
2013-02-23 14:22:00,37.6,30.7,29.83,SSE,158,0.0,0.0,76,0.00,CLR,,0.83,WeatherDisplay:10.37,2013-02-23 22:22:00,
2013-02-23 14:24:00,37.2,29.4,29.84,SSE,158,0.0,0.0,73,0.00,CLR,,0.83,WeatherDisplay:10.37,2013-02-23 22:24:00,
2013-02-23 14:25:00,37.2,29.4,29.84,SSE,158,0.0,0.0,73,0.00,CLR,,0.83,WeatherDisplay:10.37,2013-02-23 22:25:00,
2013-02-23 14:26:00,37.2,29.7,29.84,SSE,158,0.0,0.0,74,0.00,CLR,,0.83,WeatherDisplay:10.37,2013-02-23 22:26:00,
2013-02-23 14:27:00,37.4,29.5,29.84,SSE,158,0.0,0.0,73,0.00,CLR,,0.83,WeatherDisplay:10.37,2013-02-23 22:27:00,
2013-02-23 14:29:00,37.6,30.4,29.84,SSE,158,0.0,0.0,75,0.00,CLR,,0.83,WeatherDisplay:10.37,2013-02-23 22:29:00,
2013-02-23 14:30:00,37.6,30.4,29.84,SSE,158,0.0,0.0,75,0.00,CLR,,0.83,WeatherDisplay:10.37,2013-02-23 22:30:00,
2013-02-23 14:31:00,37.6,29.7,29.84,SSE,158,0.0,0.0,73,0.00,CLR,,0.83,WeatherDisplay:10.37,2013-02-23 22:31:00,
2013-02-23 14:32:00,37.6,29.7,29.84,SSE,158,0.0,0.0,73,0.00,CLR,,0.83,WeatherDisplay:10.37,2013-02-23 22:32:00,
2013-02-23 14:34:00,37.8,30.2,29.84,SSE,158,0.0,0.0,74,0.00,CLR,,0.83,WeatherDisplay:10.37,2013-02-23 22:34:00,
2013-02-23 14:35:00,37.8,30.2,29.84,SSE,158,0.0,0.0,74,0.00,CLR,,0.83,WeatherDisplay:10.37,2013-02-23 22:35:00,
2013-02-23 14:36:00,37.8,30.2,29.84,SSE,158,0.0,0.0,74,0.00,CLR,,0.83,WeatherDisplay:10.37,2013-02-23 22:36:00,
2013-02-23 14:38:00,37.6,29.7,29.84,SSE,158,0.0,0.0,73,0.00,CLR,,0.83,WeatherDisplay:10.37,2013-02-23 22:38:00,
2013-02-23 14:39:00,37.9,31.4,29.84,SSE,158,0.0,0.0,77,0.00,CLR,,0.83,WeatherDisplay:10.37,2013-02-23 22:39:00,
2013-02-23 14:40:00,37.9,31.4,29.84,SSE,158,0.0,0.0,77,0.00,CLR,CLR,0.83,WeatherDisplay:10.37,2013-02-23 22:40:00,
2013-02-23 14:42:00,38.1,30.6,29.84,SSE,158,0.0,0.0,74,0.00,CLR,,0.83,WeatherDisplay:10.37,2013-02-23 22:42:00,
2013-02-23 14:43:00,37.8,29.5,29.84,SSE,158,0.0,0.0,72,0.00,CLR,,0.83,WeatherDisplay:10.37,2013-02-23 22:43:00,
2013-02-23 14:44:00,37.8,29.5,29.85,ESE,112,3.7,4.7,72,0.00,CLR,,0.83,WeatherDisplay:10.37,2013-02-23 22:44:00,
2013-02-23 14:45:00,37.8,29.5,29.85,SE,137,3.0,5.0,72,0.00,CLR,CLR,0.83,WeatherDisplay:10.37,2013-02-23 22:45:00,
2013-02-23 14:47:00,37.8,30.5,29.85,SSE,158,3.6,4.6,75,0.00,CLR,,0.83,WeatherDisplay:10.37,2013-02-23 22:47:00,
2013-02-23 14:48:00,38.1,31.5,29.85,SSE,158,3.5,5.8,77,0.00,CLR,,0.83,WeatherDisplay:10.37,2013-02-23 22:48:00,
2013-02-23 14:50:00,37.9,30.7,29.85,South,180,3.8,5.8,75,0.00,CLR,,0.83,WeatherDisplay:10.37,2013-02-23 22:50:00,
2013-02-23 14:52:00,38.1,31.5,29.85,ESE,112,3.5,3.5,77,0.00,CLR,,0.83,WeatherDisplay:10.37,2013-02-23 22:52:00,
2013-02-23 14:53:00,38.3,32.0,29.85,ESE,112,3.5,3.5,78,0.00,CLR,,0.83,WeatherDisplay:10.37,2013-02-23 22:53:00,
2013-02-23 14:55:00,38.3,32.0,29.85,South,180,3.2,3.5,78,0.00,CLR,,0.83,WeatherDisplay:10.37,2013-02-23 22:55:00,
2013-02-23 14:57:00,38.1,31.2,29.85,West,270,3.1,5.8,76,0.00,CLR,,0.83,WeatherDisplay:10.37,2013-02-23 22:57:00,
2013-02-23 14:58:00,38.1,31.2,29.85,West,270,3.1,5.8,76,0.00,CLR,,0.83,WeatherDisplay:10.37,2013-02-23 22:58:00,
2013-02-23 15:00:00,37.9,31.4,29.85,SE,135,2.6,3.6,77,0.00,CLR,,0.83,WeatherDisplay:10.37,2013-02-23 23:00:00,
2013-02-23 15:02:00,38.1,29.9,29.85,South,180,2.6,6.9,72,0.00,CLR,,0.83,WeatherDisplay:10.37,2013-02-23 23:02:00,
2013-02-23 15:03:00,38.1,29.2,29.85,South,180,2.6,6.9,70,0.00,CLR,,0.83,WeatherDisplay:10.37,2013-02-23 23:03:00,
2013-02-23 15:05:00,38.1,29.2,29.85,South,170,3.0,7.0,70,0.00,CLR,CLR,0.83,WeatherDisplay:10.37,2013-02-23 23:05:00,
2013-02-23 15:08:00,38.5,31.6,29.85,SSE,158,2.9,3.5,76,0.00,CLR,,0.83,WeatherDisplay:10.37,2013-02-23 23:08:00,
2013-02-23 15:09:00,38.5,28.8,29.85,SSE,158,2.9,3.5,68,0.00,CLR,,0.83,WeatherDisplay:10.37,2013-02-23 23:09:00,
2013-02-23 15:10:00,38.5,28.8,29.85,SSE,158,2.9,3.8,68,0.00,CLR,,0.83,WeatherDisplay:10.37,2013-02-23 23:10:00,
2013-02-23 15:13:00,38.1,25.0,29.85,SSE,158,2.9,3.8,59,0.00,CLR,,0.83,WeatherDisplay:10.37,2013-02-23 23:13:00,
2013-02-23 15:14:00,38.1,25.0,29.85,SSE,158,2.9,3.5,59,0.00,CLR,,0.83,WeatherDisplay:10.37,2013-02-23 23:14:00,
2013-02-23 15:15:00,37.8,24.3,29.85,ESE,112,4.5,4.5,58,0.00,CLR,,0.83,WeatherDisplay:10.37,2013-02-23 23:15:00,
2013-02-23 15:18:00,37.6,24.1,29.85,SE,135,4.9,4.9,58,0.00,CLR,,0.83,WeatherDisplay:10.37,2013-02-23 23:18:00,
2013-02-23 15:19:00,37.8,24.3,29.85,SSE,158,4.9,4.9,58,0.00,CLR,,0.83,WeatherDisplay:10.37,2013-02-23 23:19:00,
2013-02-23 15:20:00,37.8,24.3,29.85,SSE,158,4.9,4.9,58,0.00,CLR,,0.83,WeatherDisplay:10.37,2013-02-23 23:20:00,
2013-02-23 15:23:00,37.6,23.3,29.85,East,90,4.3,6.0,56,0.00,CLR,,0.83,WeatherDisplay:10.37,2013-02-23 23:23:00,
2013-02-23 15:24:00,37.6,23.3,29.85,East,90,4.3,5.8,56,0.00,CLR,,0.83,WeatherDisplay:10.37,2013-02-23 23:24:00,
2013-02-23 15:25:00,37.4,21.8,29.85,South,180,4.1,5.8,53,0.00,CLR,,0.83,WeatherDisplay:10.37,2013-02-23 23:25:00,
2013-02-23 15:26:00,37.4,21.8,29.85,South,180,4.1,5.8,53,0.00,CLR,,0.83,WeatherDisplay:10.37,2013-02-23 23:26:00,
2013-02-23 15:29:00,37.2,22.5,29.85,South,180,4.3,8.1,55,0.00,CLR,,0.83,WeatherDisplay:10.37,2013-02-23 23:29:00,
2013-02-23 15:30:00,37.2,22.5,29.85,South,180,4.3,8.1,55,0.00,CLR,,0.83,WeatherDisplay:10.37,2013-02-23 23:30:00,
2013-02-23 15:31:00,37.0,22.8,29.85,NNW,338,4.1,8.1,56,0.00,CLR,,0.83,WeatherDisplay:10.37,2013-02-23 23:31:00,
2013-02-23 15:34:00,36.9,21.7,29.85,SE,135,4.3,8.1,54,0.00,CLR,,0.83,WeatherDisplay:10.37,2013-02-23 23:34:00,
2013-02-23 15:35:00,36.7,21.1,29.85,SSE,158,4.5,8.1,53,0.00,CLR,,0.83,WeatherDisplay:10.37,2013-02-23 23:35:00,
2013-02-23 15:36:00,36.7,21.1,29.85,SSE,158,4.5,9.2,53,0.00,CLR,,0.83,WeatherDisplay:10.37,2013-02-23 23:36:00,
2013-02-23 15:40:00,36.1,20.2,29.85,SSE,158,4.3,8.1,52,0.00,CLR,,0.83,WeatherDisplay:10.37,2013-02-23 23:40:00,
2013-02-23 15:41:00,36.1,20.2,29.85,SE,135,4.1,6.9,52,0.00,CLR,,0.83,WeatherDisplay:10.37,2013-02-23 23:41:00,
2013-02-23 15:45:00,36.1,19.7,29.86,NE,45,3.9,3.9,51,0.00,CLR,,0.83,WeatherDisplay:10.37,2013-02-23 23:45:00,
2013-02-23 15:46:00,36.1,19.7,29.86,NE,45,3.9,5.8,51,0.00,CLR,,0.83,WeatherDisplay:10.37,2013-02-23 23:46:00,
2013-02-23 15:50:00,36.0,19.6,29.86,SSE,158,3.8,9.2,51,0.00,CLR,,0.83,WeatherDisplay:10.37,2013-02-23 23:50:00,
2013-02-23 15:51:00,36.0,19.6,29.86,South,180,4.0,7.1,51,0.00,CLR,,0.83,WeatherDisplay:10.37,2013-02-23 23:51:00,
2013-02-23 15:55:00,35.8,19.4,29.86,South,180,4.1,10.4,51,0.00,CLR,,0.83,WeatherDisplay:10.37,2013-02-23 23:55:00,
2013-02-23 15:56:00,35.8,19.4,29.86,South,180,4.1,6.9,51,0.00,CLR,,0.83,WeatherDisplay:10.37,2013-02-23 23:56:00,
2013-02-23 16:00:00,35.6,19.2,29.86,SE,135,4.1,8.1,51,0.00,CLR,,0.83,WeatherDisplay:10.37,2013-02-24 00:00:00,
2013-02-23 16:01:00,35.6,19.2,29.86,SE,135,4.1,8.1,51,0.00,CLR,,0.83,WeatherDisplay:10.37,2013-02-24 00:01:00,
2013-02-23 16:05:00,35.4,19.5,29.87,South,180,3.7,5.8,52,0.00,CLR,,0.83,WeatherDisplay:10.37,2013-02-24 00:05:00,
2013-02-23 16:06:00,35.4,19.5,29.87,South,180,3.7,3.7,52,0.00,CLR,,0.83,WeatherDisplay:10.37,2013-02-24 00:06:00,
2013-02-23 16:07:00,35.4,20.0,29.87,SSE,158,3.5,3.5,53,0.00,CLR,,0.83,WeatherDisplay:10.37,2013-02-24 00:07:00,
2013-02-23 16:10:00,35.4,20.0,29.87,SSE,158,3.1,3.1,53,0.00,CLR,,0.83,WeatherDisplay:10.37,2013-02-24 00:10:00,
2013-02-23 16:11:00,35.4,20.0,29.87,East,90,2.8,4.6,53,0.00,CLR,,0.83,WeatherDisplay:10.37,2013-02-24 00:11:00,
2013-02-23 16:12:00,35.4,20.0,29.87,East,90,2.8,4.6,53,0.00,CLR,,0.83,WeatherDisplay:10.37,2013-02-24 00:12:00,
2013-02-23 16:15:00,35.2,20.2,29.87,SSE,158,2.6,8.1,54,0.00,CLR,,0.83,WeatherDisplay:10.37,2013-02-24 00:15:00,
2013-02-23 16:16:00,35.2,20.2,29.87,SSE,158,2.6,8.1,54,0.00,CLR,,0.83,WeatherDisplay:10.37,2013-02-24 00:16:00,
2013-02-23 16:17:00,35.2,20.2,29.87,SSE,158,2.6,8.1,54,0.00,CLR,,0.83,WeatherDisplay:10.37,2013-02-24 00:17:00,
2013-02-23 16:18:00,35.1,19.6,29.87,SSE,158,3.0,8.5,53,0.00,CLR,,0.83,WeatherDisplay:10.37,2013-02-24 00:18:00,
2013-02-23 16:20:00,35.1,19.6,29.87,SE,135,3.6,4.8,53,0.00,CLR,,0.83,WeatherDisplay:10.37,2013-02-24 00:20:00,
2013-02-23 16:21:00,34.9,19.9,29.87,SE,135,3.7,4.6,54,0.00,CLR,,0.83,WeatherDisplay:10.37,2013-02-24 00:21:00,
2013-02-23 16:22:00,34.9,19.9,29.87,SE,135,3.7,4.6,54,0.00,CLR,,0.83,WeatherDisplay:10.37,2013-02-24 00:22:00,
2013-02-23 16:23:00,34.9,19.9,29.88,NE,45,3.7,3.7,54,0.00,CLR,,0.83,WeatherDisplay:10.37,2013-02-24 00:23:00,
2013-02-23 16:26:00,34.7,19.7,29.88,ESE,112,3.8,3.8,54,0.00,CLR,,0.83,WeatherDisplay:10.37,2013-02-24 00:26:00,
2013-02-23 16:27:00,34.7,20.2,29.88,SW,225,3.2,3.5,55,0.00,CLR,,0.83,WeatherDisplay:10.37,2013-02-24 00:27:00,
2013-02-23 16:28:00,34.7,20.2,29.88,SW,225,3.2,3.5,55,0.00,CLR,,0.83,WeatherDisplay:10.37,2013-02-24 00:28:00,
2013-02-23 16:31:00,34.5,20.0,29.88,SE,135,2.8,4.6,55,0.00,CLR,,0.83,WeatherDisplay:10.37,2013-02-24 00:31:00,
2013-02-23 16:32:00,34.5,20.0,29.88,SE,135,2.8,4.6,55,0.00,CLR,,0.83,WeatherDisplay:10.37,2013-02-24 00:32:00,
2013-02-23 16:33:00,34.5,20.0,29.88,South,180,2.6,4.6,55,0.00,CLR,,0.83,WeatherDisplay:10.37,2013-02-24 00:33:00,
2013-02-23 16:36:00,34.3,19.8,29.88,SE,135,2.5,3.5,55,0.00,CLR,,0.83,WeatherDisplay:10.37,2013-02-24 00:36:00,
2013-02-23 16:37:00,34.3,19.8,29.88,SE,135,2.5,3.5,55,0.00,CLR,,0.83,WeatherDisplay:10.37,2013-02-24 00:37:00,
2013-02-23 16:38:00,34.3,19.8,29.88,SE,135,2.4,2.4,55,0.00,CLR,,0.83,WeatherDisplay:10.37,2013-02-24 00:38:00,
2013-02-23 16:41:00,34.2,19.7,29.88,ENE,68,2.3,4.6,55,0.00,CLR,,0.83,WeatherDisplay:10.37,2013-02-24 00:41:00,
2013-02-23 16:42:00,34.2,19.7,29.88,ENE,68,2.3,2.3,55,0.00,CLR,,0.83,WeatherDisplay:10.37,2013-02-24 00:42:00,
2013-02-23 16:43:00,34.0,19.9,29.88,WSW,248,2.0,2.3,56,0.00,CLR,,0.83,WeatherDisplay:10.37,2013-02-24 00:43:00,
2013-02-23 16:46:00,34.0,19.9,29.88,SE,135,2.0,2.3,56,0.00,CLR,,0.83,WeatherDisplay:10.37,2013-02-24 00:46:00,
2013-02-23 16:47:00,33.8,19.7,29.88,SE,135,2.2,3.5,56,0.00,CLR,,0.83,WeatherDisplay:10.37,2013-02-24 00:47:00,
2013-02-23 16:48:00,33.8,19.7,29.88,SE,135,2.2,3.5,56,0.00,CLR,,0.83,WeatherDisplay:10.37,2013-02-24 00:48:00,
2013-02-23 16:51:00,33.8,19.7,29.88,ESE,112,2.0,3.5,56,0.00,CLR,,0.83,WeatherDisplay:10.37,2013-02-24 00:51:00,
2013-02-23 16:52:00,33.8,19.7,29.88,ESE,112,2.0,2.3,56,0.00,CLR,,0.83,WeatherDisplay:10.37,2013-02-24 00:52:00,
2013-02-23 16:53:00,33.6,19.6,29.88,SSE,158,2.2,2.3,56,0.00,CLR,,0.83,WeatherDisplay:10.37,2013-02-24 00:53:00,
2013-02-23 16:56:00,33.4,19.8,29.88,SSE,158,2.2,2.3,57,0.00,CLR,,0.83,WeatherDisplay:10.37,2013-02-24 00:56:00,
2013-02-23 16:57:00,33.3,19.7,29.88,SE,135,2.1,4.6,57,0.00,CLR,,0.83,WeatherDisplay:10.37,2013-02-24 00:57:00,
2013-02-23 16:58:00,33.3,19.7,29.88,SE,135,2.1,4.6,57,0.00,CLR,,0.83,WeatherDisplay:10.37,2013-02-24 00:58:00,
2013-02-23 17:01:00,33.3,19.7,29.88,SSE,158,2.2,3.5,57,0.00,CLR,,0.83,WeatherDisplay:10.37,2013-02-24 01:01:00,
2013-02-23 17:02:00,33.3,19.7,29.88,SSE,158,2.2,3.5,57,0.00,CLR,,0.83,WeatherDisplay:10.37,2013-02-24 01:02:00,
2013-02-23 17:03:00,33.3,19.7,29.88,SSE,158,2.2,3.5,57,0.00,CLR,,0.83,WeatherDisplay:10.37,2013-02-24 01:03:00,
2013-02-23 17:07:00,33.1,19.5,29.90,SE,135,2.0,3.5,57,0.00,CLR,,0.83,WeatherDisplay:10.37,2013-02-24 01:07:00,
2013-02-23 17:08:00,33.1,19.5,29.90,SSE,158,2.0,3.5,57,0.00,CLR,,0.83,WeatherDisplay:10.37,2013-02-24 01:08:00,
2013-02-23 17:09:00,32.9,19.3,29.90,South,180,2.0,5.1,57,0.00,CLR,,0.83,WeatherDisplay:10.37,2013-02-24 01:09:00,
2013-02-23 17:12:00,32.9,19.3,29.90,South,180,1.8,4.6,57,0.00,CLR,,0.83,WeatherDisplay:10.37,2013-02-24 01:12:00,
2013-02-23 17:13:00,32.9,19.3,29.90,South,180,1.8,4.6,57,0.00,CLR,,0.83,WeatherDisplay:10.37,2013-02-24 01:13:00,
2013-02-23 17:14:00,32.7,19.1,29.90,ENE,68,1.8,1.8,57,0.00,CLR,,0.83,WeatherDisplay:10.37,2013-02-24 01:14:00,
2013-02-23 17:17:00,32.5,19.4,29.90,SE,135,1.1,2.3,58,0.00,CLR,,0.83,WeatherDisplay:10.37,2013-02-24 01:17:00,
2013-02-23 17:18:00,32.5,19.4,29.90,SE,135,1.1,2.3,58,0.00,CLR,,0.83,WeatherDisplay:10.37,2013-02-24 01:18:00,
2013-02-23 17:19:00,32.5,19.4,29.90,ENE,68,1.1,2.3,58,0.00,CLR,,0.83,WeatherDisplay:10.37,2013-02-24 01:19:00,
2013-02-23 17:22:00,32.5,19.0,29.90,SE,135,0.9,2.6,57,0.00,CLR,,0.83,WeatherDisplay:10.37,2013-02-24 01:22:00,
2013-02-23 17:23:00,32.5,19.0,29.90,SE,135,0.9,2.3,57,0.00,CLR,,0.83,WeatherDisplay:10.37,2013-02-24 01:23:00,
2013-02-23 17:24:00,32.4,19.2,29.89,SSE,158,1.0,2.3,58,0.00,CLR,,0.83,WeatherDisplay:10.37,2013-02-24 01:24:00,
2013-02-23 17:27:00,32.4,19.2,29.89,SE,135,1.5,2.3,58,0.00,CLR,,0.83,WeatherDisplay:10.37,2013-02-24 01:27:00,
2013-02-23 17:28:00,32.4,19.2,29.89,SE,135,1.5,3.5,58,0.00,CLR,,0.83,WeatherDisplay:10.37,2013-02-24 01:28:00,
2013-02-23 17:29:00,32.2,19.0,29.89,ENE,68,1.6,3.5,58,0.00,CLR,,0.83,WeatherDisplay:10.37,2013-02-24 01:29:00,
2013-02-23 17:32:00,32.0,18.9,29.89,South,180,1.3,1.3,58,0.00,CLR,,0.83,WeatherDisplay:10.37,2013-02-24 01:32:00,
2013-02-23 17:33:00,32.0,18.9,29.89,SE,135,1.1,0.0,58,0.00,CLR,,0.83,WeatherDisplay:10.37,2013-02-24 01:33:00,
2013-02-23 17:34:00,32.0,18.9,29.89,SE,135,1.1,0.0,58,0.00,CLR,,0.83,WeatherDisplay:10.37,2013-02-24 01:34:00,
2013-02-23 17:38:00,31.6,18.9,29.89,ESE,112,1.1,3.5,59,0.00,CLR,,0.83,WeatherDisplay:10.37,2013-02-24 01:38:00,
2013-02-23 17:39:00,31.6,18.9,29.89,ESE,112,1.1,3.5,59,0.00,CLR,,0.83,WeatherDisplay:10.37,2013-02-24 01:39:00,
2013-02-23 17:43:00,31.3,18.6,29.90,South,180,1.1,2.1,59,0.00,CLR,,0.83,WeatherDisplay:10.37,2013-02-24 01:43:00,
2013-02-23 17:44:00,31.3,18.6,29.90,South,180,1.1,1.1,59,0.00,CLR,,0.83,WeatherDisplay:10.37,2013-02-24 01:44:00,
2013-02-23 17:45:00,31.3,18.6,29.90,South,180,1.1,2.3,59,0.00,CLR,,0.83,WeatherDisplay:10.37,2013-02-24 01:45:00,
2013-02-23 17:48:00,31.1,18.4,29.90,SSE,158,1.3,3.5,59,0.00,CLR,,0.83,WeatherDisplay:10.37,2013-02-24 01:48:00,
2013-02-23 17:49:00,30.9,18.3,29.90,ESE,112,1.3,3.5,59,0.00,CLR,,0.83,WeatherDisplay:10.37,2013-02-24 01:49:00,
2013-02-23 17:50:00,30.9,18.3,29.90,SSE,153,1.0,3.0,59,0.00,CLR,CLR,0.83,WeatherDisplay:10.37,2013-02-24 01:50:00,
2013-02-23 17:53:00,30.7,18.5,29.90,SSE,158,1.6,3.5,60,0.00,CLR,,0.83,WeatherDisplay:10.37,2013-02-24 01:53:00,
2013-02-23 17:54:00,30.7,18.5,29.90,SSE,158,1.6,3.5,60,0.00,CLR,,0.83,WeatherDisplay:10.37,2013-02-24 01:54:00,
2013-02-23 17:55:00,30.7,18.5,29.90,SSE,150,1.0,4.0,60,0.00,CLR,CLR,0.83,WeatherDisplay:10.37,2013-02-24 01:55:00,
2013-02-23 17:58:00,30.7,18.9,29.90,SSE,158,2.0,3.5,61,0.00,CLR,,0.83,WeatherDisplay:10.37,2013-02-24 01:58:00,
2013-02-23 17:59:00,30.6,18.7,29.90,SSE,158,1.6,2.3,61,0.00,CLR,,0.83,WeatherDisplay:10.37,2013-02-24 01:59:00,
2013-02-23 18:00:00,30.6,18.7,29.90,SSE,158,1.6,2.3,61,0.00,CLR,,0.83,WeatherDisplay:10.37,2013-02-24 02:00:00,
2013-02-23 18:04:00,30.4,18.5,29.89,SE,135,1.8,2.3,61,0.00,CLR,,0.83,WeatherDisplay:10.37,2013-02-24 02:04:00,
2013-02-23 18:05:00,30.2,18.7,29.89,South,180,1.7,2.3,62,0.00,CLR,,0.83,WeatherDisplay:10.37,2013-02-24 02:05:00,
2013-02-23 18:09:00,30.2,18.7,29.89,SSE,158,2.0,4.6,62,0.00,CLR,,0.83,WeatherDisplay:10.37,2013-02-24 02:09:00,
2013-02-23 18:10:00,30.2,18.7,29.89,SSE,158,2.1,4.6,62,0.00,CLR,,0.83,WeatherDisplay:10.37,2013-02-24 02:10:00,
2013-02-23 18:14:00,29.8,18.4,29.89,SW,225,2.0,2.4,62,0.00,CLR,,0.83,WeatherDisplay:10.37,2013-02-24 02:14:00,
2013-02-23 18:15:00,29.8,18.4,29.89,SSE,158,2.0,2.3,62,0.00,CLR,,0.83,WeatherDisplay:10.37,2013-02-24 02:15:00,
2013-02-23 18:19:00,29.7,18.6,29.89,SE,135,0.9,1.1,63,0.00,CLR,,0.83,WeatherDisplay:10.37,2013-02-24 02:19:00,
2013-02-23 18:20:00,29.7,18.6,29.89,SE,135,0.9,1.1,63,0.00,CLR,,0.83,WeatherDisplay:10.37,2013-02-24 02:20:00,
2013-02-23 18:24:00,29.5,18.4,29.90,SSW,202,0.6,1.1,63,0.00,CLR,,0.83,WeatherDisplay:10.37,2013-02-24 02:24:00,
2013-02-23 18:25:00,29.5,18.4,29.90,SSW,202,0.6,1.1,63,0.00,CLR,,0.83,WeatherDisplay:10.37,2013-02-24 02:25:00,
2013-02-23 18:30:00,29.5,18.4,29.90,ESE,112,0.7,0.0,63,0.00,CLR,,0.83,WeatherDisplay:10.37,2013-02-24 02:30:00,
2013-02-23 18:34:00,29.3,18.3,29.90,SSE,158,0.7,2.3,63,0.00,CLR,,0.83,WeatherDisplay:10.37,2013-02-24 02:34:00,
2013-02-23 18:35:00,29.3,18.3,29.90,SE,130,1.0,2.0,63,0.00,CLR,CLR,0.83,WeatherDisplay:10.37,2013-02-24 02:35:00,
2013-02-23 18:40:00,28.9,17.9,29.90,SSE,158,1.0,1.1,63,0.00,CLR,,0.83,WeatherDisplay:10.37,2013-02-24 02:40:00,
2013-02-23 18:41:00,28.9,17.9,29.90,SSE,158,1.0,1.1,63,0.00,CLR,,0.83,WeatherDisplay:10.37,2013-02-24 02:41:00,
2013-02-23 18:45:00,28.9,17.9,29.91,SSE,158,1.1,1.1,63,0.00,CLR,,0.83,WeatherDisplay:10.37,2013-02-24 02:45:00,
2013-02-23 18:46:00,28.9,17.9,29.91,SSE,158,1.1,1.5,63,0.00,CLR,,0.83,WeatherDisplay:10.37,2013-02-24 02:46:00,
2013-02-23 18:50:00,28.6,17.6,29.91,SSE,158,0.7,0.0,63,0.00,CLR,,0.83,WeatherDisplay:10.37,2013-02-24 02:50:00,
2013-02-23 18:51:00,28.6,17.6,29.91,South,180,0.7,0.0,63,0.00,CLR,,0.83,WeatherDisplay:10.37,2013-02-24 02:51:00,
2013-02-23 18:55:00,28.4,17.4,29.91,SW,225,0.3,0.0,63,0.00,CLR,,0.83,WeatherDisplay:10.37,2013-02-24 02:55:00,
2013-02-23 18:56:00,28.4,17.4,29.91,SW,225,0.3,0.0,63,0.00,CLR,,0.83,WeatherDisplay:10.37,2013-02-24 02:56:00,
2013-02-23 19:00:00,28.0,17.1,29.91,NNE,22,0.3,0.0,63,0.00,CLR,,0.83,WeatherDisplay:10.37,2013-02-24 03:00:00,
2013-02-23 19:01:00,28.0,17.1,29.91,NNE,22,0.3,0.0,63,0.00,CLR,,0.83,WeatherDisplay:10.37,2013-02-24 03:01:00,
2013-02-23 19:05:00,27.5,16.5,29.93,NNE,22,0.0,0.0,63,0.00,CLR,,0.83,WeatherDisplay:10.37,2013-02-24 03:05:00,
2013-02-23 19:06:00,27.5,16.5,29.93,NNE,22,0.0,0.0,63,0.00,CLR,,0.83,WeatherDisplay:10.37,2013-02-24 03:06:00,
2013-02-23 19:10:00,27.5,16.9,29.93,West,270,0.0,0.0,64,0.00,CLR,,0.83,WeatherDisplay:10.37,2013-02-24 03:10:00,
2013-02-23 19:11:00,27.5,17.3,29.93,West,270,0.0,0.0,65,0.00,CLR,,0.83,WeatherDisplay:10.37,2013-02-24 03:11:00,
2013-02-23 19:15:00,27.3,17.1,29.93,WNW,292,0.0,0.0,65,0.00,CLR,,0.83,WeatherDisplay:10.37,2013-02-24 03:15:00,
2013-02-23 19:16:00,27.3,17.1,29.93,WNW,292,0.0,0.0,65,0.00,CLR,,0.83,WeatherDisplay:10.37,2013-02-24 03:16:00,
2013-02-23 19:21:00,27.5,17.6,29.93,NW,315,0.2,0.0,66,0.00,CLR,,0.83,WeatherDisplay:10.37,2013-02-24 03:21:00,
2013-02-23 19:22:00,27.5,17.6,29.93,West,270,0.3,0.0,66,0.00,CLR,,0.83,WeatherDisplay:10.37,2013-02-24 03:22:00,
2013-02-23 19:26:00,27.5,17.6,29.93,NW,315,0.3,0.0,66,0.00,CLR,,0.83,WeatherDisplay:10.37,2013-02-24 03:26:00,
2013-02-23 19:27:00,27.5,17.6,29.93,NW,315,0.3,0.0,66,0.00,CLR,,0.83,WeatherDisplay:10.37,2013-02-24 03:27:00,
2013-02-23 19:31:00,27.0,17.1,29.93,NNW,338,0.2,0.0,66,0.00,CLR,,0.83,WeatherDisplay:10.37,2013-02-24 03:31:00,
2013-02-23 19:32:00,26.8,16.9,29.93,NNE,22,0.2,0.0,66,0.00,CLR,,0.83,WeatherDisplay:10.37,2013-02-24 03:32:00,
2013-02-23 19:36:00,26.2,16.4,29.93,NW,315,0.0,0.0,66,0.00,CLR,,0.83,WeatherDisplay:10.37,2013-02-24 03:36:00,
2013-02-23 19:37:00,26.2,16.4,29.93,NW,315,0.0,0.0,66,0.00,CLR,,0.83,WeatherDisplay:10.37,2013-02-24 03:37:00,
2013-02-23 19:41:00,26.2,16.4,29.93,East,90,0.0,0.0,66,0.00,CLR,,0.83,WeatherDisplay:10.37,2013-02-24 03:41:00,
2013-02-23 19:42:00,26.2,16.4,29.93,ESE,112,0.0,0.0,66,0.00,CLR,,0.83,WeatherDisplay:10.37,2013-02-24 03:42:00,
2013-02-23 19:46:00,26.2,16.4,29.93,NE,45,0.0,0.0,66,0.00,CLR,,0.83,WeatherDisplay:10.37,2013-02-24 03:46:00,
2013-02-23 19:47:00,26.2,16.4,29.93,NE,45,0.0,0.0,66,0.00,CLR,,0.83,WeatherDisplay:10.37,2013-02-24 03:47:00,
2013-02-23 19:51:00,26.1,16.6,29.93,WNW,292,0.0,0.0,67,0.00,CLR,,0.83,WeatherDisplay:10.37,2013-02-24 03:51:00,
2013-02-23 19:52:00,26.1,16.6,29.93,WNW,292,0.0,0.0,67,0.00,CLR,,0.83,WeatherDisplay:10.37,2013-02-24 03:52:00,
2013-02-23 19:56:00,26.1,16.9,29.93,West,270,0.0,0.0,68,0.00,CLR,,0.83,WeatherDisplay:10.37,2013-02-24 03:56:00,
2013-02-23 19:57:00,26.1,16.9,29.93,West,270,0.0,0.0,68,0.00,CLR,,0.83,WeatherDisplay:10.37,2013-02-24 03:57:00,
2013-02-23 20:01:00,25.7,16.6,29.93,WNW,292,0.0,0.0,68,0.00,CLR,,0.83,WeatherDisplay:10.37,2013-02-24 04:01:00,
2013-02-23 20:02:00,25.7,16.6,29.93,WNW,292,0.0,0.0,68,0.00,CLR,,0.83,WeatherDisplay:10.37,2013-02-24 04:02:00,
2013-02-23 20:07:00,25.5,16.4,29.94,NNW,338,0.0,0.0,68,0.00,CLR,,0.83,WeatherDisplay:10.37,2013-02-24 04:07:00,
2013-02-23 20:12:00,25.3,16.6,29.94,NW,315,0.0,0.0,69,0.00,CLR,,0.83,WeatherDisplay:10.37,2013-02-24 04:12:00,
2013-02-23 20:13:00,25.3,16.6,29.94,NW,315,0.0,0.0,69,0.00,CLR,,0.83,WeatherDisplay:10.37,2013-02-24 04:13:00,
2013-02-23 20:17:00,25.2,16.4,29.94,NNW,338,0.0,0.0,69,0.00,CLR,,0.83,WeatherDisplay:10.37,2013-02-24 04:17:00,
2013-02-23 20:18:00,25.3,16.9,29.94,SSW,202,0.0,0.0,70,0.00,CLR,,0.83,WeatherDisplay:10.37,2013-02-24 04:18:00,
2013-02-23 20:22:00,25.3,16.9,29.94,ENE,68,0.0,0.0,70,0.00,CLR,,0.83,WeatherDisplay:10.37,2013-02-24 04:22:00,
2013-02-23 20:23:00,25.3,16.9,29.94,ENE,68,0.0,0.0,70,0.00,CLR,,0.83,WeatherDisplay:10.37,2013-02-24 04:23:00,
2013-02-23 20:27:00,25.3,16.9,29.94,NNE,22,0.0,0.0,70,0.00,CLR,,0.83,WeatherDisplay:10.37,2013-02-24 04:27:00,
2013-02-23 20:28:00,25.5,17.1,29.94,NW,315,0.0,0.0,70,0.00,CLR,,0.83,WeatherDisplay:10.37,2013-02-24 04:28:00,
2013-02-23 20:32:00,25.5,17.4,29.94,NNE,22,0.0,0.0,71,0.00,CLR,,0.83,WeatherDisplay:10.37,2013-02-24 04:32:00,
2013-02-23 20:33:00,25.5,17.4,29.94,NNE,22,0.0,0.0,71,0.00,CLR,,0.83,WeatherDisplay:10.37,2013-02-24 04:33:00,
2013-02-23 20:37:00,25.0,16.6,29.94,NNE,22,0.0,0.0,70,0.00,CLR,,0.83,WeatherDisplay:10.37,2013-02-24 04:37:00,
2013-02-23 20:38:00,25.0,16.6,29.94,NNE,22,0.0,0.0,70,0.00,CLR,,0.83,WeatherDisplay:10.37,2013-02-24 04:38:00,
2013-02-23 20:42:00,24.6,16.2,29.94,NNE,22,0.0,0.0,70,0.00,CLR,,0.83,WeatherDisplay:10.37,2013-02-24 04:42:00,
2013-02-23 20:43:00,24.6,16.2,29.94,NNE,22,0.0,0.0,70,0.00,CLR,,0.83,WeatherDisplay:10.37,2013-02-24 04:43:00,
2013-02-23 20:47:00,24.4,16.4,29.94,ENE,68,0.0,0.0,71,0.00,CLR,,0.83,WeatherDisplay:10.37,2013-02-24 04:47:00,
2013-02-23 20:48:00,24.4,16.4,29.94,ENE,68,0.0,0.0,71,0.00,CLR,,0.83,WeatherDisplay:10.37,2013-02-24 04:48:00,
2013-02-23 20:52:00,24.6,16.9,29.94,WSW,248,0.0,0.0,72,0.00,CLR,,0.83,WeatherDisplay:10.37,2013-02-24 04:52:00,
2013-02-23 20:53:00,24.6,16.9,29.94,WSW,248,0.0,0.0,72,0.00,CLR,,0.83,WeatherDisplay:10.37,2013-02-24 04:53:00,
2013-02-23 20:57:00,24.4,17.0,29.94,NNE,22,0.0,0.0,73,0.00,CLR,,0.83,WeatherDisplay:10.37,2013-02-24 04:57:00,
2013-02-23 20:58:00,24.4,17.0,29.94,NNE,22,0.0,0.0,73,0.00,CLR,,0.83,WeatherDisplay:10.37,2013-02-24 04:58:00,
2013-02-23 20:59:00,24.4,17.0,29.94,NNE,22,0.0,0.0,73,0.00,CLR,,0.83,WeatherDisplay:10.37,2013-02-24 04:59:00,
2013-02-23 21:00:00,24.6,17.2,29.94,NE,45,0.0,0.0,73,0.00,CLR,,0.83,WeatherDisplay:10.37,2013-02-24 05:00:00,
2013-02-23 21:05:00,24.4,17.0,29.94,WNW,292,0.0,1.1,73,0.00,CLR,,0.83,WeatherDisplay:10.37,2013-02-24 05:05:00,
2013-02-23 21:10:00,24.1,16.7,29.94,NE,45,0.0,0.0,73,0.00,CLR,,0.83,WeatherDisplay:10.37,2013-02-24 05:10:00,
2013-02-23 21:15:00,23.4,15.7,29.94,NNE,22,0.0,0.0,72,0.00,CLR,,0.83,WeatherDisplay:10.37,2013-02-24 05:15:00,
2013-02-23 21:20:00,23.2,15.8,29.94,NE,45,0.0,0.0,73,0.00,CLR,,0.83,WeatherDisplay:10.37,2013-02-24 05:20:00,
2013-02-23 21:25:00,23.2,15.8,29.94,NW,315,0.0,0.0,73,0.00,CLR,,0.83,WeatherDisplay:10.37,2013-02-24 05:25:00,
2013-02-23 21:26:00,23.2,15.8,29.94,NW,315,0.0,0.0,73,0.00,CLR,,0.83,WeatherDisplay:10.37,2013-02-24 05:26:00,
2013-02-23 21:30:00,23.2,15.8,29.94,NNW,338,0.0,0.0,73,0.00,CLR,,0.83,WeatherDisplay:10.37,2013-02-24 05:30:00,
2013-02-23 21:31:00,23.2,15.8,29.94,NNW,338,0.0,0.0,73,0.00,CLR,,0.83,WeatherDisplay:10.37,2013-02-24 05:31:00,
2013-02-23 21:35:00,23.0,15.9,29.94,NNW,338,0.0,0.0,74,0.00,CLR,,0.83,WeatherDisplay:10.37,2013-02-24 05:35:00,
2013-02-23 21:36:00,23.0,15.9,29.94,NNW,338,0.0,0.0,74,0.00,CLR,,0.83,WeatherDisplay:10.37,2013-02-24 05:36:00,
2013-02-23 21:41:00,22.6,15.6,29.94,NE,45,0.0,0.0,74,0.00,CLR,,0.83,WeatherDisplay:10.37,2013-02-24 05:41:00,
2013-02-23 21:46:00,22.1,15.1,29.95,NNE,22,0.0,0.0,74,0.00,CLR,,0.83,WeatherDisplay:10.37,2013-02-24 05:46:00,
2013-02-23 21:51:00,21.9,14.9,29.95,ENE,68,0.0,0.0,74,0.00,CLR,,0.83,WeatherDisplay:10.37,2013-02-24 05:51:00,
2013-02-23 21:52:00,21.9,14.9,29.95,ENE,68,0.0,0.0,74,0.00,CLR,,0.83,WeatherDisplay:10.37,2013-02-24 05:52:00,
2013-02-23 21:56:00,21.9,14.9,29.95,NNW,338,0.0,0.0,74,0.00,CLR,,0.83,WeatherDisplay:10.37,2013-02-24 05:56:00,
2013-02-23 21:57:00,21.9,14.9,29.95,NNW,338,0.0,0.0,74,0.00,CLR,,0.83,WeatherDisplay:10.37,2013-02-24 05:57:00,
2013-02-23 22:01:00,22.1,15.4,29.95,NE,45,0.0,0.0,75,0.00,CLR,,0.83,WeatherDisplay:10.37,2013-02-24 06:01:00,
2013-02-23 22:02:00,22.1,15.4,29.95,NE,45,0.0,0.0,75,0.00,CLR,,0.83,WeatherDisplay:10.37,2013-02-24 06:02:00,
2013-02-23 22:06:00,22.3,15.9,29.95,SSE,158,0.0,0.0,76,0.00,CLR,,0.83,WeatherDisplay:10.37,2013-02-24 06:06:00,
2013-02-23 22:07:00,21.9,15.5,29.95,West,270,0.0,0.0,76,0.00,CLR,,0.83,WeatherDisplay:10.37,2013-02-24 06:07:00,
2013-02-23 22:11:00,22.3,15.9,29.95,ENE,68,0.0,0.0,76,0.00,CLR,,0.83,WeatherDisplay:10.37,2013-02-24 06:11:00,
2013-02-23 22:12:00,22.3,15.9,29.95,ENE,68,0.0,0.0,76,0.00,CLR,,0.83,WeatherDisplay:10.37,2013-02-24 06:12:00,
2013-02-23 22:13:00,22.3,15.9,29.95,ENE,68,0.0,0.0,76,0.00,CLR,,0.83,WeatherDisplay:10.37,2013-02-24 06:13:00,
2013-02-23 22:16:00,22.1,15.7,29.95,NW,315,0.0,0.0,76,0.00,CLR,,0.83,WeatherDisplay:10.37,2013-02-24 06:16:00,
2013-02-23 22:17:00,22.1,15.7,29.95,NW,315,0.0,0.0,76,0.00,CLR,,0.83,WeatherDisplay:10.37,2013-02-24 06:17:00,
2013-02-23 22:18:00,22.1,15.7,29.95,NW,315,0.0,0.0,76,0.00,CLR,,0.83,WeatherDisplay:10.37,2013-02-24 06:18:00,
2013-02-23 22:22:00,21.6,15.2,29.95,NW,315,0.0,0.0,76,0.00,CLR,,0.83,WeatherDisplay:10.37,2013-02-24 06:22:00,
2013-02-23 22:23:00,21.7,15.3,29.95,East,90,0.0,0.0,76,0.00,CLR,,0.83,WeatherDisplay:10.37,2013-02-24 06:23:00,
2013-02-23 22:24:00,21.7,15.3,29.95,East,90,0.0,0.0,76,0.00,CLR,,0.83,WeatherDisplay:10.37,2013-02-24 06:24:00,
2013-02-23 22:27:00,22.1,16.0,29.95,West,270,0.0,0.0,77,0.00,CLR,,0.83,WeatherDisplay:10.37,2013-02-24 06:27:00,
2013-02-23 22:29:00,22.1,16.0,29.95,West,270,0.0,0.0,77,0.00,CLR,,0.83,WeatherDisplay:10.37,2013-02-24 06:29:00,
2013-02-23 22:32:00,21.9,15.8,29.95,NNE,22,0.0,0.0,77,0.00,CLR,,0.83,WeatherDisplay:10.37,2013-02-24 06:32:00,
2013-02-23 22:34:00,22.3,16.2,29.95,NNE,22,0.0,0.0,77,0.00,CLR,,0.83,WeatherDisplay:10.37,2013-02-24 06:34:00,
2013-02-23 22:37:00,22.1,16.0,29.95,East,90,0.0,0.0,77,0.00,CLR,,0.83,WeatherDisplay:10.37,2013-02-24 06:37:00,
2013-02-23 22:39:00,22.1,16.0,29.95,East,90,0.0,0.0,77,0.00,CLR,,0.83,WeatherDisplay:10.37,2013-02-24 06:39:00,
2013-02-23 22:40:00,21.9,15.8,29.95,East,90,0.0,0.0,77,0.00,CLR,,0.83,WeatherDisplay:10.37,2013-02-24 06:40:00,
2013-02-23 22:42:00,21.9,15.8,29.95,East,90,0.0,0.0,77,0.00,CLR,,0.83,WeatherDisplay:10.37,2013-02-24 06:42:00,
2013-02-23 22:44:00,21.9,15.8,29.95,West,270,0.0,0.0,77,0.00,CLR,,0.83,WeatherDisplay:10.37,2013-02-24 06:44:00,
2013-02-23 22:45:00,21.9,15.8,29.95,WNW,292,0.0,0.0,77,0.00,CLR,,0.83,WeatherDisplay:10.37,2013-02-24 06:45:00,
2013-02-23 22:47:00,21.9,15.8,29.95,West,270,0.0,0.0,77,0.00,CLR,,0.83,WeatherDisplay:10.37,2013-02-24 06:47:00,
2013-02-23 22:49:00,21.9,15.8,29.95,West,270,0.0,0.0,77,0.00,CLR,,0.83,WeatherDisplay:10.37,2013-02-24 06:49:00,
2013-02-23 22:51:00,21.9,15.8,29.95,ESE,112,0.0,0.0,77,0.00,CLR,,0.83,WeatherDisplay:10.37,2013-02-24 06:51:00,
2013-02-23 22:53:00,21.6,15.5,29.95,NE,45,0.0,0.0,77,0.00,CLR,,0.83,WeatherDisplay:10.37,2013-02-24 06:53:00,
2013-02-23 22:54:00,21.7,15.6,29.95,North,0,0.0,0.0,77,0.00,CLR,,0.83,WeatherDisplay:10.37,2013-02-24 06:54:00,
2013-02-23 22:56:00,21.9,16.1,29.95,West,270,0.0,0.0,78,0.00,CLR,,0.83,WeatherDisplay:10.37,2013-02-24 06:56:00,
2013-02-23 22:58:00,22.1,16.3,29.95,West,270,0.0,1.1,78,0.00,CLR,,0.83,WeatherDisplay:10.37,2013-02-24 06:58:00,
2013-02-23 22:59:00,22.1,16.3,29.95,West,270,0.0,1.1,78,0.00,CLR,,0.83,WeatherDisplay:10.37,2013-02-24 06:59:00,
2013-02-23 23:01:00,22.1,16.3,29.95,West,270,0.0,0.0,78,0.00,CLR,,0.83,WeatherDisplay:10.37,2013-02-24 07:01:00,
2013-02-23 23:03:00,22.1,16.3,29.95,ENE,68,0.0,0.0,78,0.00,CLR,,0.83,WeatherDisplay:10.37,2013-02-24 07:03:00,
2013-02-23 23:04:00,22.3,16.5,29.96,NNW,338,0.0,0.0,78,0.00,CLR,,0.83,WeatherDisplay:10.37,2013-02-24 07:04:00,
2013-02-23 23:07:00,22.5,16.9,29.96,NE,45,0.1,0.0,79,0.00,CLR,,0.83,WeatherDisplay:10.37,2013-02-24 07:07:00,
2013-02-23 23:08:00,22.3,16.8,29.96,ENE,68,0.1,0.0,79,0.00,CLR,,0.83,WeatherDisplay:10.37,2013-02-24 07:08:00,
2013-02-23 23:09:00,22.3,16.8,29.96,NE,45,0.0,0.0,79,0.00,CLR,,0.83,WeatherDisplay:10.37,2013-02-24 07:09:00,
2013-02-23 23:12:00,22.3,16.8,29.96,SE,135,0.0,0.0,79,0.00,CLR,,0.83,WeatherDisplay:10.37,2013-02-24 07:12:00,
2013-02-23 23:13:00,22.3,16.8,29.96,SE,135,0.0,0.0,79,0.00,CLR,,0.83,WeatherDisplay:10.37,2013-02-24 07:13:00,
2013-02-23 23:14:00,22.3,16.8,29.96,WSW,248,0.0,0.0,79,0.00,CLR,,0.83,WeatherDisplay:10.37,2013-02-24 07:14:00,
2013-02-23 23:17:00,22.3,16.8,29.96,NW,315,0.0,0.0,79,0.00,CLR,,0.83,WeatherDisplay:10.37,2013-02-24 07:17:00,
2013-02-23 23:18:00,22.3,16.8,29.96,NNE,22,0.0,0.0,79,0.00,CLR,,0.83,WeatherDisplay:10.37,2013-02-24 07:18:00,
2013-02-23 23:19:00,22.3,16.8,29.96,NNE,22,0.0,0.0,79,0.00,CLR,,0.83,WeatherDisplay:10.37,2013-02-24 07:19:00,
2013-02-23 23:22:00,21.6,16.1,29.96,NE,45,0.0,0.0,79,0.00,CLR,,0.83,WeatherDisplay:10.37,2013-02-24 07:22:00,
2013-02-23 23:23:00,21.6,16.1,29.95,North,0,0.0,0.0,79,0.00,CLR,,0.83,WeatherDisplay:10.37,2013-02-24 07:23:00,
2013-02-23 23:24:00,21.6,16.1,29.95,North,0,0.0,0.0,79,0.00,CLR,,0.83,WeatherDisplay:10.37,2013-02-24 07:24:00,
2013-02-23 23:27:00,21.7,16.2,29.95,SE,135,0.0,0.0,79,0.00,CLR,,0.83,WeatherDisplay:10.37,2013-02-24 07:27:00,
2013-02-23 23:28:00,21.7,16.2,29.95,SE,135,0.0,0.0,79,0.00,CLR,,0.83,WeatherDisplay:10.37,2013-02-24 07:28:00,
2013-02-23 23:29:00,21.7,16.2,29.95,SE,135,0.0,0.0,79,0.00,CLR,,0.83,WeatherDisplay:10.37,2013-02-24 07:29:00,
2013-02-23 23:30:00,21.7,16.2,29.95,West,270,0.0,1.3,79,0.00,CLR,,0.83,WeatherDisplay:10.37,2013-02-24 07:30:00,
2013-02-23 23:32:00,21.9,16.4,29.95,NW,315,0.0,1.1,79,0.00,CLR,,0.83,WeatherDisplay:10.37,2013-02-24 07:32:00,
2013-02-23 23:33:00,21.7,16.2,29.95,NNW,338,0.0,0.0,79,0.00,CLR,,0.83,WeatherDisplay:10.37,2013-02-24 07:33:00,
2013-02-23 23:34:00,21.7,16.2,29.95,NNW,338,0.0,0.0,79,0.00,CLR,,0.83,WeatherDisplay:10.37,2013-02-24 07:34:00,
2013-02-23 23:35:00,21.7,16.2,29.95,NNW,338,0.0,0.0,79,0.00,CLR,,0.83,WeatherDisplay:10.37,2013-02-24 07:35:00,
2013-02-23 23:37:00,21.6,16.1,29.95,NNE,22,0.0,0.0,79,0.00,CLR,,0.83,WeatherDisplay:10.37,2013-02-24 07:37:00,